Time,TemperatureF,DewpointF,PressureIn,WindDirection,WindDirectionDegrees,WindSpeedMPH,WindSpeedGustMPH,Humidity,HourlyPrecipIn,Conditions,Clouds,dailyrainin,SoftwareType,DateUTC
2013-07-01 00:00:00,68.5,57.1,29.84,NW,324,0.0,9.0,67,0.00,,,0.00,VWS V14.01,2013-07-01 05:00:00,
2013-07-01 00:02:00,68.5,56.7,29.84,NNW,335,3.0,4.0,66,0.00,,OVC070,0.00,VWS V14.01,2013-07-01 05:02:00,
2013-07-01 00:03:00,68.3,56.5,29.84,NW,319,3.0,5.0,66,0.00,,OVC070,0.00,VWS V14.01,2013-07-01 05:03:00,
2013-07-01 00:07:00,68.3,56.1,29.84,NW,319,0.0,6.0,65,0.00,,OVC070,0.00,VWS V14.01,2013-07-01 05:07:00,
2013-07-01 00:08:00,68.3,56.1,29.84,NNW,348,0.0,6.0,65,0.00,,OVC070,0.00,VWS V14.01,2013-07-01 05:08:00,
2013-07-01 00:09:00,68.3,56.1,29.84,North,349,0.0,6.0,65,0.00,,OVC070,0.00,VWS V14.01,2013-07-01 05:09:00,
2013-07-01 00:12:00,68.2,55.6,29.84,NNW,342,4.0,7.0,64,0.00,,OVC070,0.00,VWS V14.01,2013-07-01 05:12:00,
2013-07-01 00:13:00,68.2,55.1,29.84,NNE,24,0.0,7.0,63,0.00,,OVC070,0.00,VWS V14.01,2013-07-01 05:13:00,
2013-07-01 00:14:00,68.2,55.1,29.84,NNE,26,6.0,7.0,63,0.00,,OVC070,0.00,VWS V14.01,2013-07-01 05:14:00,
2013-07-01 00:17:00,68.3,54.8,29.84,NNW,334,0.0,7.0,62,0.00,,OVC070,0.00,VWS V14.01,2013-07-01 05:17:00,
2013-07-01 00:18:00,68.3,54.8,29.84,North,355,0.0,7.0,62,0.00,,OVC070,0.00,VWS V14.01,2013-07-01 05:18:00,
2013-07-01 00:19:00,68.3,54.8,29.84,NNW,336,2.0,7.0,62,0.00,,OVC070,0.00,VWS V14.01,2013-07-01 05:19:00,
2013-07-01 00:22:00,68.2,54.2,29.84,NW,320,0.0,7.0,61,0.00,,OVC070,0.00,VWS V14.01,2013-07-01 05:22:00,
2013-07-01 00:23:00,68.2,54.2,29.84,NW,320,0.0,7.0,61,0.00,,OVC070,0.00,VWS V14.01,2013-07-01 05:23:00,
2013-07-01 00:24:00,68.2,54.2,29.84,North,5,0.0,7.0,61,0.00,,OVC070,0.00,VWS V14.01,2013-07-01 05:24:00,
2013-07-01 00:28:00,68.2,54.2,29.84,NNE,33,5.0,11.0,61,0.00,,OVC070,0.00,VWS V14.01,2013-07-01 05:28:00,
2013-07-01 00:29:00,68.2,53.8,29.84,NW,319,0.0,11.0,60,0.00,,OVC070,0.00,VWS V14.01,2013-07-01 05:29:00,
2013-07-01 00:30:00,68.2,54.2,29.84,NE,53,3.0,11.0,61,0.00,,,0.00,VWS V14.01,2013-07-01 05:30:00,
2013-07-01 00:33:00,68.2,53.8,29.84,NW,325,1.0,7.0,60,0.00,,OVC070,0.00,VWS V14.01,2013-07-01 05:33:00,
2013-07-01 00:34:00,68.2,54.2,29.84,NW,306,0.0,7.0,61,0.00,,OVC070,0.00,VWS V14.01,2013-07-01 05:34:00,
2013-07-01 00:38:00,68.0,54.1,29.84,NNW,331,0.0,7.0,61,0.00,,OVC070,0.00,VWS V14.01,2013-07-01 05:38:00,
2013-07-01 00:39:00,68.0,54.1,29.84,NW,316,0.0,7.0,61,0.00,,OVC070,0.00,VWS V14.01,2013-07-01 05:39:00,
2013-07-01 00:43:00,68.0,54.1,29.84,North,349,9.0,10.0,61,0.00,,OVC070,0.00,VWS V14.01,2013-07-01 05:43:00,
2013-07-01 00:44:00,68.0,53.6,29.84,North,350,5.0,10.0,60,0.00,,OVC070,0.00,VWS V14.01,2013-07-01 05:44:00,
2013-07-01 00:45:00,67.8,55.2,29.84,North,355,4.0,10.0,64,0.00,,OVC070,0.00,VWS V14.01,2013-07-01 05:45:00,
2013-07-01 00:48:00,67.8,53.4,29.84,NNW,338,4.0,10.0,60,0.00,,OVC080,0.00,VWS V14.01,2013-07-01 05:48:00,
2013-07-01 00:49:00,67.8,53.4,29.84,NW,321,1.0,10.0,60,0.00,,OVC080,0.00,VWS V14.01,2013-07-01 05:49:00,
2013-07-01 00:50:00,67.8,53.0,29.84,NE,38,4.0,10.0,59,0.00,,OVC080,0.00,VWS V14.01,2013-07-01 05:50:00,
2013-07-01 00:53:00,67.8,53.0,29.84,NNE,19,1.0,11.0,59,0.00,,OVC080,0.00,VWS V14.01,2013-07-01 05:53:00,
2013-07-01 00:54:00,67.8,53.0,29.84,NNE,24,0.0,11.0,59,0.00,,OVC080,0.00,VWS V14.01,2013-07-01 05:54:00,
2013-07-01 00:55:00,67.8,53.4,29.84,North,5,0.0,11.0,60,0.00,,OVC080,0.00,VWS V14.01,2013-07-01 05:55:00,
2013-07-01 00:56:00,67.8,53.4,29.84,NNE,12,1.0,11.0,60,0.00,,OVC080,0.00,VWS V14.01,2013-07-01 05:56:00,
2013-07-01 00:59:00,67.7,53.3,29.84,NW,314,0.0,11.0,60,0.00,,OVC080,0.00,VWS V14.01,2013-07-01 05:59:00,
2013-07-01 01:00:00,67.7,53.3,29.84,NNW,336,0.0,11.0,60,0.00,,BKN095,0.00,VWS V14.01,2013-07-01 06:00:00,
2013-07-01 01:02:00,67.7,53.8,29.84,NW,325,0.0,0.0,61,0.00,,BKN095,0.00,VWS V14.01,2013-07-01 06:02:00,
2013-07-01 01:04:00,67.5,54.0,29.84,NW,317,0.0,0.0,62,0.00,,BKN095,0.00,VWS V14.01,2013-07-01 06:04:00,
2013-07-01 01:05:00,67.5,54.0,29.84,NNW,328,0.0,1.0,62,0.00,,BKN095,0.00,VWS V14.01,2013-07-01 06:05:00,
2013-07-01 01:07:00,67.3,53.8,29.84,NW,318,0.0,1.0,62,0.00,,BKN095,0.00,VWS V14.01,2013-07-01 06:07:00,
2013-07-01 01:09:00,67.3,54.3,29.84,NW,321,0.0,1.0,63,0.00,,BKN095,0.00,VWS V14.01,2013-07-01 06:09:00,
2013-07-01 01:10:00,67.2,54.2,29.84,NW,309,1.0,1.0,63,0.00,,BKN095,0.00,VWS V14.01,2013-07-01 06:10:00,
2013-07-01 01:11:00,67.2,54.2,29.84,NW,323,0.0,1.0,63,0.00,,BKN095,0.00,VWS V14.01,2013-07-01 06:11:00,
2013-07-01 01:12:00,67.2,54.2,29.84,NNW,344,0.0,1.0,63,0.00,,BKN095,0.00,VWS V14.01,2013-07-01 06:12:00,
2013-07-01 01:14:00,67.0,54.0,29.84,NNW,327,3.0,6.0,63,0.00,,BKN095,0.00,VWS V14.01,2013-07-01 06:14:00,
2013-07-01 01:15:00,67.0,54.0,29.84,NW,313,0.0,7.0,63,0.00,,BKN095,0.00,VWS V14.01,2013-07-01 06:15:00,
2013-07-01 01:16:00,66.8,53.8,29.84,North,350,0.0,7.0,63,0.00,,BKN095,0.00,VWS V14.01,2013-07-01 06:16:00,
2013-07-01 01:17:00,66.8,53.8,29.84,NNW,337,0.0,7.0,63,0.00,,BKN095,0.00,VWS V14.01,2013-07-01 06:17:00,
2013-07-01 01:19:00,66.8,53.8,29.84,NNW,346,0.0,7.0,63,0.00,,BKN095,0.00,VWS V14.01,2013-07-01 06:19:00,
2013-07-01 01:20:00,66.7,53.3,29.84,NW,326,0.0,8.0,62,0.00,,BKN095,0.00,VWS V14.01,2013-07-01 06:20:00,
2013-07-01 01:22:00,66.7,53.3,29.84,NW,321,0.0,8.0,62,0.00,,BKN095,0.00,VWS V14.01,2013-07-01 06:22:00,
2013-07-01 01:24:00,66.7,53.3,29.84,North,349,0.0,8.0,62,0.00,,BKN095,0.00,VWS V14.01,2013-07-01 06:24:00,
2013-07-01 01:25:00,66.7,53.3,29.84,NW,309,0.0,8.0,62,0.00,,BKN095,0.00,VWS V14.01,2013-07-01 06:25:00,
2013-07-01 01:27:00,66.5,53.1,29.84,NNW,327,0.0,8.0,62,0.00,,BKN095,0.00,VWS V14.01,2013-07-01 06:27:00,
2013-07-01 01:29:00,66.5,53.1,29.84,NNW,336,0.0,8.0,62,0.00,,BKN095,0.00,VWS V14.01,2013-07-01 06:29:00,
2013-07-01 01:30:00,66.5,53.1,29.84,North,350,1.0,8.0,62,0.00,,BKN095,0.00,VWS V14.01,2013-07-01 06:30:00,
2013-07-01 01:32:00,66.5,53.1,29.84,NNE,21,2.0,6.0,62,0.00,,BKN110,0.00,VWS V14.01,2013-07-01 06:32:00,
2013-07-01 01:33:00,66.5,53.1,29.84,NE,38,5.0,7.0,62,0.00,,BKN110,0.00,VWS V14.01,2013-07-01 06:33:00,
2013-07-01 01:35:00,66.3,53.3,29.84,North,355,0.0,7.0,63,0.00,,BKN110,0.00,VWS V14.01,2013-07-01 06:35:00,
2013-07-01 01:36:00,66.3,52.9,29.84,NW,323,0.0,7.0,62,0.00,,BKN110,0.00,VWS V14.01,2013-07-01 06:36:00,
2013-07-01 01:39:00,66.3,53.3,29.84,NNW,336,0.0,7.0,63,0.00,,BKN110,0.00,VWS V14.01,2013-07-01 06:39:00,
2013-07-01 01:40:00,66.3,53.3,29.84,NW,310,0.0,7.0,63,0.00,,BKN110,0.00,VWS V14.01,2013-07-01 06:40:00,
2013-07-01 01:41:00,66.3,52.9,29.84,NW,317,0.0,7.0,62,0.00,,BKN110,0.00,VWS V14.01,2013-07-01 06:41:00,
2013-07-01 01:44:00,66.2,53.2,29.84,NNW,331,0.0,7.0,63,0.00,,BKN110,0.00,VWS V14.01,2013-07-01 06:44:00,
2013-07-01 01:45:00,66.2,53.2,29.83,NNW,340,2.0,10.0,63,0.00,,BKN110,0.00,VWS V14.01,2013-07-01 06:45:00,
2013-07-01 01:46:00,66.2,53.2,29.83,NNW,342,2.0,10.0,63,0.00,,BKN110,0.00,VWS V14.01,2013-07-01 06:46:00,
2013-07-01 01:47:00,66.2,53.2,29.83,NW,323,0.0,10.0,63,0.00,,BKN110,0.00,VWS V14.01,2013-07-01 06:47:00,
2013-07-01 01:49:00,66.0,53.1,29.83,North,5,0.0,10.0,63,0.00,,BKN110,0.00,VWS V14.01,2013-07-01 06:49:00,
2013-07-01 01:50:00,66.0,53.5,29.83,NNW,334,0.0,10.0,64,0.00,,BKN110,0.00,VWS V14.01,2013-07-01 06:50:00,
2013-07-01 01:51:00,66.0,53.5,29.83,NW,311,0.0,10.0,64,0.00,,BKN110,0.00,VWS V14.01,2013-07-01 06:51:00,
2013-07-01 01:52:00,66.0,53.5,29.83,North,350,9.0,10.0,64,0.00,,BKN110,0.00,VWS V14.01,2013-07-01 06:52:00,
2013-07-01 01:54:00,66.0,53.9,29.83,NNW,341,0.0,10.0,65,0.00,,BKN110,0.00,VWS V14.01,2013-07-01 06:54:00,
2013-07-01 01:56:00,65.9,53.4,29.83,NW,315,3.0,10.0,64,0.00,,BKN110,0.00,VWS V14.01,2013-07-01 06:56:00,
2013-07-01 01:57:00,65.9,53.4,29.83,NW,325,0.0,10.0,64,0.00,,BKN110,0.00,VWS V14.01,2013-07-01 06:57:00,
2013-07-01 01:59:00,65.9,53.8,29.83,NNE,22,0.0,10.0,65,0.00,,BKN110,0.00,VWS V14.01,2013-07-01 06:59:00,
2013-07-01 02:00:00,65.9,53.8,29.83,North,351,0.0,10.0,65,0.00,,,0.00,VWS V14.01,2013-07-01 07:00:00,
2013-07-01 02:01:00,65.9,53.8,29.83,North,355,0.0,1.0,65,0.00,,BKN100,0.00,VWS V14.01,2013-07-01 07:01:00,
2013-07-01 02:02:00,65.9,53.8,29.83,NNW,334,0.0,1.0,65,0.00,,BKN100,0.00,VWS V14.01,2013-07-01 07:02:00,
2013-07-01 02:04:00,65.9,53.8,29.83,North,355,6.0,9.0,65,0.00,,BKN100,0.00,VWS V14.01,2013-07-01 07:04:00,
2013-07-01 02:06:00,65.9,53.8,29.83,NW,313,0.0,9.0,65,0.00,,BKN100,0.00,VWS V14.01,2013-07-01 07:06:00,
2013-07-01 02:07:00,65.9,53.8,29.83,NW,312,0.0,9.0,65,0.00,,BKN100,0.00,VWS V14.01,2013-07-01 07:07:00,
2013-07-01 02:09:00,65.7,54.0,29.83,North,355,0.0,9.0,66,0.00,,BKN100,0.00,VWS V14.01,2013-07-01 07:09:00,
2013-07-01 02:12:00,65.7,53.6,29.83,NW,306,1.0,9.0,65,0.00,,BKN100,0.00,VWS V14.01,2013-07-01 07:12:00,
2013-07-01 02:13:00,65.7,54.0,29.83,NNW,328,0.0,9.0,66,0.00,,BKN100,0.00,VWS V14.01,2013-07-01 07:13:00,
2013-07-01 02:14:00,65.7,54.0,29.83,NNW,327,0.0,9.0,66,0.00,,BKN100,0.00,VWS V14.01,2013-07-01 07:14:00,
2013-07-01 02:17:00,65.7,54.0,29.83,NW,323,0.0,9.0,66,0.00,,BKN100,0.00,VWS V14.01,2013-07-01 07:17:00,
2013-07-01 02:18:00,65.5,53.8,29.83,NW,326,0.0,9.0,66,0.00,,BKN100,0.00,VWS V14.01,2013-07-01 07:18:00,
2013-07-01 02:19:00,65.5,53.8,29.83,NW,326,0.0,9.0,66,0.00,,BKN100,0.00,VWS V14.01,2013-07-01 07:19:00,
2013-07-01 02:22:00,65.5,53.8,29.83,NNW,338,1.0,9.0,66,0.00,,BKN100,0.00,VWS V14.01,2013-07-01 07:22:00,
2013-07-01 02:23:00,65.5,54.3,29.83,NNW,333,3.0,9.0,67,0.00,,BKN100,0.00,VWS V14.01,2013-07-01 07:23:00,
2013-07-01 02:24:00,65.4,54.2,29.83,NW,306,0.0,9.0,67,0.00,,BKN100,0.00,VWS V14.01,2013-07-01 07:24:00,
2013-07-01 02:25:00,65.4,54.2,29.83,North,360,0.0,9.0,67,0.00,,BKN100,0.00,VWS V14.01,2013-07-01 07:25:00,
2013-07-01 02:27:00,65.4,54.2,29.83,North,351,0.0,9.0,67,0.00,,BKN100,0.00,VWS V14.01,2013-07-01 07:27:00,
2013-07-01 02:28:00,65.4,54.6,29.83,NW,313,2.0,9.0,68,0.00,,BKN100,0.00,VWS V14.01,2013-07-01 07:28:00,
2013-07-01 02:30:00,65.2,54.4,29.83,North,351,0.0,9.0,68,0.00,,BKN100,0.00,VWS V14.01,2013-07-01 07:30:00,
2013-07-01 02:32:00,65.2,54.8,29.83,NW,315,0.0,3.0,69,0.00,,BKN100,0.00,VWS V14.01,2013-07-01 07:32:00,
2013-07-01 02:33:00,65.1,54.7,29.83,NNW,348,4.0,6.0,69,0.00,,BKN100,0.00,VWS V14.01,2013-07-01 07:33:00,
2013-07-01 02:35:00,64.9,54.9,29.83,NNW,332,3.0,6.0,70,0.00,,BKN100,0.00,VWS V14.01,2013-07-01 07:35:00,
2013-07-01 02:36:00,64.9,54.9,29.83,NNW,333,0.0,6.0,70,0.00,,BKN100,0.00,VWS V14.01,2013-07-01 07:36:00,
2013-07-01 02:37:00,64.7,54.7,29.83,NNW,332,0.0,6.0,70,0.00,,BKN100,0.00,VWS V14.01,2013-07-01 07:37:00,
2013-07-01 02:38:00,64.6,54.6,29.83,NNW,342,3.0,6.0,70,0.00,,BKN100,0.00,VWS V14.01,2013-07-01 07:38:00,
2013-07-01 02:40:00,64.6,54.6,29.83,NNW,329,3.0,6.0,70,0.00,,BKN100,0.00,VWS V14.01,2013-07-01 07:40:00,
2013-07-01 02:41:00,64.6,54.6,29.83,NNW,343,0.0,6.0,70,0.00,,BKN100,0.00,VWS V14.01,2013-07-01 07:41:00,
2013-07-01 02:42:00,64.4,54.4,29.83,NNW,344,0.0,6.0,70,0.00,,BKN100,0.00,VWS V14.01,2013-07-01 07:42:00,
2013-07-01 02:43:00,64.4,54.4,29.83,NNW,335,0.0,6.0,70,0.00,,BKN100,0.00,VWS V14.01,2013-07-01 07:43:00,
2013-07-01 02:45:00,64.2,54.2,29.84,NW,325,0.0,6.0,70,0.00,,OVC120,0.00,VWS V14.01,2013-07-01 07:45:00,
2013-07-01 02:46:00,64.2,54.2,29.84,NW,314,0.0,6.0,70,0.00,,OVC120,0.00,VWS V14.01,2013-07-01 07:46:00,
2013-07-01 02:47:00,64.2,54.2,29.84,NW,322,0.0,6.0,70,0.00,,OVC120,0.00,VWS V14.01,2013-07-01 07:47:00,
2013-07-01 02:48:00,64.2,54.2,29.84,NW,322,0.0,6.0,70,0.00,,OVC120,0.00,VWS V14.01,2013-07-01 07:48:00,
2013-07-01 02:49:00,64.2,54.2,29.84,NW,315,0.0,6.0,70,0.00,,OVC120,0.00,VWS V14.01,2013-07-01 07:49:00,
2013-07-01 02:50:00,64.1,53.7,29.84,NW,319,0.0,6.0,69,0.00,,OVC120,0.00,VWS V14.01,2013-07-01 07:50:00,
2013-07-01 02:51:00,64.1,53.7,29.84,NW,319,0.0,6.0,69,0.00,,OVC120,0.00,VWS V14.01,2013-07-01 07:51:00,
2013-07-01 02:53:00,64.1,53.7,29.84,NNW,336,0.0,6.0,69,0.00,,OVC120,0.00,VWS V14.01,2013-07-01 07:53:00,
2013-07-01 02:54:00,64.1,53.7,29.84,NNW,329,0.0,6.0,69,0.00,,OVC120,0.00,VWS V14.01,2013-07-01 07:54:00,
2013-07-01 02:55:00,63.9,53.5,29.84,NNW,327,0.0,6.0,69,0.00,,OVC120,0.00,VWS V14.01,2013-07-01 07:55:00,
2013-07-01 02:56:00,63.9,53.5,29.84,NW,321,0.0,6.0,69,0.00,,OVC120,0.00,VWS V14.01,2013-07-01 07:56:00,
2013-07-01 02:58:00,63.9,53.5,29.84,NNW,333,0.0,6.0,69,0.00,,OVC120,0.00,VWS V14.01,2013-07-01 07:58:00,
2013-07-01 02:59:00,63.9,53.1,29.84,NW,319,0.0,6.0,68,0.00,,OVC120,0.00,VWS V14.01,2013-07-01 07:59:00,
2013-07-01 03:00:00,63.9,53.1,29.84,North,360,2.0,6.0,68,0.00,,OVC120,0.00,VWS V14.01,2013-07-01 08:00:00,
2013-07-01 03:01:00,63.9,53.1,29.84,NNE,20,4.0,4.0,68,0.00,,OVC100,0.00,VWS V14.01,2013-07-01 08:01:00,
2013-07-01 03:03:00,63.9,53.1,29.84,NW,315,0.0,5.0,68,0.00,,OVC100,0.00,VWS V14.01,2013-07-01 08:03:00,
2013-07-01 03:04:00,63.9,53.1,29.84,NW,315,1.0,6.0,68,0.00,,OVC100,0.00,VWS V14.01,2013-07-01 08:04:00,
2013-07-01 03:05:00,63.9,53.1,29.84,NNW,327,4.0,6.0,68,0.00,,OVC100,0.00,VWS V14.01,2013-07-01 08:05:00,
2013-07-01 03:06:00,63.9,53.1,29.84,NNW,329,0.0,6.0,68,0.00,,OVC100,0.00,VWS V14.01,2013-07-01 08:06:00,
2013-07-01 03:08:00,63.9,53.1,29.84,North,355,7.0,7.0,68,0.00,,OVC100,0.00,VWS V14.01,2013-07-01 08:08:00,
2013-07-01 03:09:00,63.9,52.7,29.84,North,349,0.0,9.0,67,0.00,,OVC100,0.00,VWS V14.01,2013-07-01 08:09:00,
2013-07-01 03:11:00,63.9,53.1,29.84,NNW,342,0.0,9.0,68,0.00,,OVC100,0.00,VWS V14.01,2013-07-01 08:11:00,
2013-07-01 03:13:00,63.8,53.0,29.84,NW,320,0.0,9.0,68,0.00,,OVC100,0.00,VWS V14.01,2013-07-01 08:13:00,
2013-07-01 03:14:00,63.8,53.0,29.84,NW,323,0.0,9.0,68,0.00,,OVC100,0.00,VWS V14.01,2013-07-01 08:14:00,
2013-07-01 03:16:00,63.8,52.7,29.84,NNW,331,1.0,9.0,67,0.00,,OVC100,0.00,VWS V14.01,2013-07-01 08:16:00,
2013-07-01 03:18:00,63.8,52.7,29.84,NNW,342,0.0,9.0,67,0.00,,OVC100,0.00,VWS V14.01,2013-07-01 08:18:00,
2013-07-01 03:19:00,63.8,52.7,29.84,NNW,336,0.0,9.0,67,0.00,,OVC100,0.00,VWS V14.01,2013-07-01 08:19:00,
2013-07-01 03:21:00,63.6,52.0,29.84,NNW,346,3.0,9.0,66,0.00,,OVC100,0.00,VWS V14.01,2013-07-01 08:21:00,
2013-07-01 03:23:00,63.6,52.0,29.84,NW,316,3.0,9.0,66,0.00,,OVC100,0.00,VWS V14.01,2013-07-01 08:23:00,
2013-07-01 03:24:00,63.6,52.0,29.84,NE,38,2.0,9.0,66,0.00,,OVC100,0.00,VWS V14.01,2013-07-01 08:24:00,
2013-07-01 03:26:00,63.6,52.0,29.84,North,9,4.0,9.0,66,0.00,,OVC100,0.00,VWS V14.01,2013-07-01 08:26:00,
2013-07-01 03:29:00,63.6,51.6,29.84,NW,321,3.0,10.0,65,0.00,,OVC100,0.00,VWS V14.01,2013-07-01 08:29:00,
2013-07-01 03:30:00,63.6,51.6,29.84,NNW,328,3.0,10.0,65,0.00,,,0.00,VWS V14.01,2013-07-01 08:30:00,
2013-07-01 03:32:00,63.6,51.6,29.84,NW,319,3.0,3.0,65,0.00,,OVC100,0.00,VWS V14.01,2013-07-01 08:32:00,
2013-07-01 03:34:00,63.6,51.6,29.84,NW,325,0.0,5.0,65,0.00,,OVC100,0.00,VWS V14.01,2013-07-01 08:34:00,
2013-07-01 03:35:00,63.6,51.6,29.84,NNW,328,3.0,5.0,65,0.00,,OVC100,0.00,VWS V14.01,2013-07-01 08:35:00,
2013-07-01 03:37:00,63.4,51.0,29.84,NNW,331,4.0,7.0,64,0.00,,OVC100,0.00,VWS V14.01,2013-07-01 08:37:00,
2013-07-01 03:39:00,63.4,50.6,29.84,NNW,346,0.0,7.0,63,0.00,,OVC100,0.00,VWS V14.01,2013-07-01 08:39:00,
2013-07-01 03:40:00,63.4,50.6,29.84,ENE,62,3.0,7.0,63,0.00,,OVC100,0.00,VWS V14.01,2013-07-01 08:40:00,
2013-07-01 03:42:00,63.4,50.6,29.84,North,355,2.0,7.0,63,0.00,,OVC100,0.00,VWS V14.01,2013-07-01 08:42:00,
2013-07-01 03:44:00,63.4,50.6,29.84,North,351,0.0,9.0,63,0.00,,OVC100,0.00,VWS V14.01,2013-07-01 08:44:00,
2013-07-01 03:45:00,63.4,51.0,29.85,NNW,342,3.0,9.0,64,0.00,,OVC100,0.00,VWS V14.01,2013-07-01 08:45:00,
2013-07-01 03:47:00,63.3,50.9,29.85,NNW,344,0.0,17.0,64,0.00,,OVC080,0.00,VWS V14.01,2013-07-01 08:47:00,
2013-07-01 03:49:00,63.0,51.5,29.85,NNW,348,0.0,17.0,66,0.00,,OVC080,0.00,VWS V14.01,2013-07-01 08:49:00,
2013-07-01 03:50:00,63.0,51.9,29.85,WNW,301,2.0,17.0,67,0.00,,OVC080,0.00,VWS V14.01,2013-07-01 08:50:00,
2013-07-01 03:52:00,62.6,51.9,29.85,NNW,344,0.0,17.0,68,0.00,,OVC080,0.00,VWS V14.01,2013-07-01 08:52:00,
2013-07-01 03:55:00,62.2,51.9,29.85,NW,319,2.0,17.0,69,0.00,,OVC080,0.00,VWS V14.01,2013-07-01 08:55:00,
2013-07-01 03:56:00,62.0,52.1,29.85,NW,315,0.0,17.0,70,0.00,,OVC080,0.00,VWS V14.01,2013-07-01 08:56:00,
2013-07-01 03:57:00,61.7,51.8,29.85,NW,315,0.0,17.0,70,0.00,,OVC080,0.00,VWS V14.01,2013-07-01 08:57:00,
2013-07-01 03:58:00,61.7,52.2,29.85,NW,326,0.0,17.0,71,0.00,,OVC080,0.00,VWS V14.01,2013-07-01 08:58:00,
2013-07-01 04:00:00,61.4,52.7,29.85,NW,318,0.0,17.0,73,0.00,,OVC080,0.00,VWS V14.01,2013-07-01 09:00:00,
2013-07-01 04:01:00,61.2,52.5,29.85,NW,315,0.0,0.0,73,0.00,,OVC080,0.00,VWS V14.01,2013-07-01 09:01:00,
2013-07-01 04:02:00,61.1,52.4,29.85,NW,320,0.0,1.0,73,0.00,,OVC110,0.00,VWS V14.01,2013-07-01 09:02:00,
2013-07-01 04:04:00,60.9,52.2,29.85,NW,322,0.0,1.0,73,0.00,,OVC110,0.00,VWS V14.01,2013-07-01 09:04:00,
2013-07-01 04:05:00,60.8,52.5,29.85,NNW,327,4.0,4.0,74,0.00,,OVC110,0.00,VWS V14.01,2013-07-01 09:05:00,
2013-07-01 04:06:00,60.8,52.5,29.85,NW,309,0.0,4.0,74,0.00,,OVC110,0.00,VWS V14.01,2013-07-01 09:06:00,
2013-07-01 04:07:00,60.6,52.3,29.85,NW,323,0.0,4.0,74,0.00,,OVC110,0.00,VWS V14.01,2013-07-01 09:07:00,
2013-07-01 04:09:00,60.6,52.6,29.85,WNW,290,0.0,4.0,75,0.00,,OVC110,0.00,VWS V14.01,2013-07-01 09:09:00,
2013-07-01 04:10:00,60.4,52.5,29.85,NNW,336,0.0,4.0,75,0.00,,OVC110,0.00,VWS V14.01,2013-07-01 09:10:00,
2013-07-01 04:11:00,60.3,52.3,29.85,NNW,344,1.0,4.0,75,0.00,,OVC110,0.00,VWS V14.01,2013-07-01 09:11:00,
2013-07-01 04:13:00,60.3,52.3,29.85,NW,320,0.0,4.0,75,0.00,,OVC110,0.00,VWS V14.01,2013-07-01 09:13:00,
2013-07-01 04:14:00,60.3,52.3,29.85,NNW,337,0.0,4.0,75,0.00,,OVC110,0.00,VWS V14.01,2013-07-01 09:14:00,
2013-07-01 04:15:00,60.1,52.5,29.85,NNW,333,0.0,4.0,76,0.00,,OVC110,0.00,VWS V14.01,2013-07-01 09:15:00,
2013-07-01 04:17:00,60.1,52.5,29.85,NW,312,0.0,4.0,76,0.00,,OVC110,0.00,VWS V14.01,2013-07-01 09:17:00,
2013-07-01 04:18:00,60.1,52.9,29.85,NNW,340,0.0,4.0,77,0.00,,OVC110,0.00,VWS V14.01,2013-07-01 09:18:00,
2013-07-01 04:19:00,60.1,52.5,29.85,NNW,338,0.0,4.0,76,0.00,,OVC110,0.00,VWS V14.01,2013-07-01 09:19:00,
2013-07-01 04:20:00,60.0,52.8,29.85,NW,319,0.0,5.0,77,0.00,,OVC110,0.00,VWS V14.01,2013-07-01 09:20:00,
2013-07-01 04:21:00,60.0,52.8,29.85,NW,322,4.0,5.0,77,0.00,,OVC110,0.00,VWS V14.01,2013-07-01 09:21:00,
2013-07-01 04:22:00,60.0,52.8,29.85,NW,313,0.0,5.0,77,0.00,,OVC110,0.00,VWS V14.01,2013-07-01 09:22:00,
2013-07-01 04:23:00,60.0,52.8,29.85,NW,324,2.0,6.0,77,0.00,,OVC110,0.00,VWS V14.01,2013-07-01 09:23:00,
2013-07-01 04:24:00,60.0,52.8,29.85,NW,313,5.0,6.0,77,0.00,,OVC110,0.00,VWS V14.01,2013-07-01 09:24:00,
2013-07-01 04:25:00,60.0,52.8,29.85,NW,317,0.0,6.0,77,0.00,,OVC110,0.00,VWS V14.01,2013-07-01 09:25:00,
2013-07-01 04:26:00,60.0,52.8,29.85,NW,309,0.0,6.0,77,0.00,,OVC110,0.00,VWS V14.01,2013-07-01 09:26:00,
2013-07-01 04:27:00,60.0,52.8,29.85,NNW,327,7.0,7.0,77,0.00,,OVC110,0.00,VWS V14.01,2013-07-01 09:27:00,
2013-07-01 04:28:00,60.0,52.8,29.85,NNW,332,2.0,7.0,77,0.00,,OVC110,0.00,VWS V14.01,2013-07-01 09:28:00,
2013-07-01 04:29:00,60.0,52.8,29.85,North,349,0.0,7.0,77,0.00,,OVC110,0.00,VWS V14.01,2013-07-01 09:29:00,
2013-07-01 04:30:00,60.0,52.8,29.85,NW,326,3.0,7.0,77,0.00,,,0.00,VWS V14.01,2013-07-01 09:30:00,
2013-07-01 04:31:00,60.0,52.8,29.85,NW,309,0.0,3.0,77,0.00,,OVC110,0.00,VWS V14.01,2013-07-01 09:31:00,
2013-07-01 04:32:00,60.0,52.8,29.85,NNW,333,1.0,3.0,77,0.00,,OVC110,0.00,VWS V14.01,2013-07-01 09:32:00,
2013-07-01 04:33:00,60.0,52.8,29.85,NNW,328,0.0,4.0,77,0.00,,OVC110,0.00,VWS V14.01,2013-07-01 09:33:00,
2013-07-01 04:35:00,60.0,52.8,29.85,NNW,338,0.0,4.0,77,0.00,,OVC110,0.00,VWS V14.01,2013-07-01 09:35:00,
2013-07-01 04:36:00,60.1,52.9,29.85,NW,308,0.0,4.0,77,0.00,,OVC110,0.00,VWS V14.01,2013-07-01 09:36:00,
2013-07-01 04:37:00,60.1,52.9,29.85,NW,317,0.0,6.0,77,0.00,,OVC110,0.00,VWS V14.01,2013-07-01 09:37:00,
2013-07-01 04:38:00,60.1,52.9,29.85,NNW,345,4.0,6.0,77,0.00,,OVC110,0.00,VWS V14.01,2013-07-01 09:38:00,
2013-07-01 04:40:00,60.1,52.9,29.85,North,355,0.0,6.0,77,0.00,,OVC110,0.00,VWS V14.01,2013-07-01 09:40:00,
2013-07-01 04:41:00,60.1,52.9,29.85,NNW,346,0.0,6.0,77,0.00,,OVC110,0.00,VWS V14.01,2013-07-01 09:41:00,
2013-07-01 04:42:00,60.1,52.9,29.85,NNW,334,0.0,6.0,77,0.00,,OVC110,0.00,VWS V14.01,2013-07-01 09:42:00,
2013-07-01 04:43:00,60.1,52.5,29.85,NNW,333,0.0,6.0,76,0.00,,OVC110,0.00,VWS V14.01,2013-07-01 09:43:00,
2013-07-01 04:46:00,60.3,53.1,29.85,NW,322,0.0,6.0,77,0.00,,-RA,0.00,VWS V14.01,2013-07-01 09:46:00,
2013-07-01 04:47:00,60.3,52.7,29.85,NW,310,0.0,6.0,76,0.00,,-RA,0.00,VWS V14.01,2013-07-01 09:47:00,
2013-07-01 04:48:00,60.3,53.1,29.85,NNE,23,3.0,6.0,77,0.00,,-RA,0.00,VWS V14.01,2013-07-01 09:48:00,
2013-07-01 04:51:00,60.3,52.7,29.85,NNW,328,0.0,6.0,76,0.00,,-RA,0.00,VWS V14.01,2013-07-01 09:51:00,
2013-07-01 04:52:00,60.3,52.7,29.85,NW,325,0.0,6.0,76,0.00,,-RA,0.00,VWS V14.01,2013-07-01 09:52:00,
2013-07-01 04:53:00,60.4,52.8,29.85,NNE,13,4.0,6.0,76,0.00,,-RA,0.00,VWS V14.01,2013-07-01 09:53:00,
2013-07-01 04:54:00,60.4,52.8,29.85,NW,310,0.0,6.0,76,0.00,,-RA,0.00,VWS V14.01,2013-07-01 09:54:00,
2013-07-01 04:56:00,60.4,52.8,29.85,NW,320,0.0,6.0,76,0.00,,-RA,0.00,VWS V14.01,2013-07-01 09:56:00,
2013-07-01 04:57:00,60.4,52.8,29.85,NW,323,0.0,6.0,76,0.00,,-RA,0.00,VWS V14.01,2013-07-01 09:57:00,
2013-07-01 04:58:00,60.4,52.8,29.85,NE,39,3.0,6.0,76,0.00,,-RA,0.00,VWS V14.01,2013-07-01 09:58:00,
2013-07-01 04:59:00,60.4,52.8,29.85,NW,311,0.0,6.0,76,0.00,,-RA,0.00,VWS V14.01,2013-07-01 09:59:00,
2013-07-01 05:00:00,60.6,52.6,29.85,NNW,333,0.0,6.0,75,0.00,,,0.00,VWS V14.01,2013-07-01 10:00:00,
2013-07-01 05:01:00,60.6,53.0,29.85,NW,321,0.0,1.0,76,0.00,,OVC090,0.00,VWS V14.01,2013-07-01 10:01:00,
2013-07-01 05:02:00,60.6,52.6,29.85,NW,325,0.0,1.0,75,0.00,,OVC090,0.00,VWS V14.01,2013-07-01 10:02:00,
2013-07-01 05:03:00,60.6,52.6,29.85,NNW,341,0.0,4.0,75,0.00,,OVC090,0.00,VWS V14.01,2013-07-01 10:03:00,
2013-07-01 05:04:00,60.6,52.6,29.85,NNW,331,0.0,4.0,75,0.00,,OVC090,0.00,VWS V14.01,2013-07-01 10:04:00,
2013-07-01 05:06:00,60.6,52.6,29.85,NNW,348,0.0,5.0,75,0.00,,OVC090,0.00,VWS V14.01,2013-07-01 10:06:00,
2013-07-01 05:07:00,60.6,52.6,29.85,NNW,327,0.0,5.0,75,0.00,,OVC090,0.00,VWS V14.01,2013-07-01 10:07:00,
2013-07-01 05:08:00,60.6,52.6,29.85,North,5,0.0,5.0,75,0.00,,OVC090,0.00,VWS V14.01,2013-07-01 10:08:00,
2013-07-01 05:09:00,60.6,52.6,29.85,NW,317,2.0,5.0,75,0.00,,OVC090,0.00,VWS V14.01,2013-07-01 10:09:00,
2013-07-01 05:12:00,60.8,52.8,29.85,NNW,344,5.0,6.0,75,0.00,,OVC090,0.00,VWS V14.01,2013-07-01 10:12:00,
2013-07-01 05:13:00,60.8,52.8,29.85,NW,316,2.0,6.0,75,0.00,,OVC090,0.00,VWS V14.01,2013-07-01 10:13:00,
2013-07-01 05:14:00,60.8,52.8,29.85,NNE,28,0.0,6.0,75,0.00,,OVC090,0.00,VWS V14.01,2013-07-01 10:14:00,
2013-07-01 05:17:00,60.8,52.8,29.85,NNW,330,0.0,6.0,75,0.00,,OVC090,0.00,VWS V14.01,2013-07-01 10:17:00,
2013-07-01 05:18:00,60.8,52.8,29.85,NW,325,0.0,6.0,75,0.00,,OVC090,0.00,VWS V14.01,2013-07-01 10:18:00,
2013-07-01 05:19:00,60.8,52.8,29.85,North,360,0.0,6.0,75,0.00,,OVC090,0.00,VWS V14.01,2013-07-01 10:19:00,
2013-07-01 05:20:00,60.8,52.8,29.85,North,349,0.0,6.0,75,0.00,,OVC090,0.00,VWS V14.01,2013-07-01 10:20:00,
2013-07-01 05:22:00,60.8,52.8,29.85,NNW,345,0.0,6.0,75,0.00,,OVC090,0.00,VWS V14.01,2013-07-01 10:22:00,
2013-07-01 05:23:00,60.8,52.8,29.85,WNW,301,0.0,6.0,75,0.00,,OVC090,0.00,VWS V14.01,2013-07-01 10:23:00,
2013-07-01 05:24:00,60.8,52.8,29.85,NNW,335,0.0,6.0,75,0.00,,OVC090,0.00,VWS V14.01,2013-07-01 10:24:00,
2013-07-01 05:25:00,60.8,52.8,29.85,NW,325,0.0,6.0,75,0.00,,OVC090,0.00,VWS V14.01,2013-07-01 10:25:00,
2013-07-01 05:27:00,60.8,52.8,29.85,North,11,0.0,6.0,75,0.00,,OVC090,0.00,VWS V14.01,2013-07-01 10:27:00,
2013-07-01 05:28:00,60.8,52.8,29.85,North,11,0.0,6.0,75,0.00,,OVC090,0.00,VWS V14.01,2013-07-01 10:28:00,
2013-07-01 05:29:00,60.8,52.8,29.85,NNE,20,4.0,6.0,75,0.00,,OVC090,0.00,VWS V14.01,2013-07-01 10:29:00,
2013-07-01 05:30:00,60.8,52.8,29.85,NNW,330,0.0,6.0,75,0.00,,OVC090,0.00,VWS V14.01,2013-07-01 10:30:00,
2013-07-01 05:32:00,60.9,52.9,29.85,NW,325,0.0,2.0,75,0.00,,OVC090,0.00,VWS V14.01,2013-07-01 10:32:00,
2013-07-01 05:33:00,60.9,52.9,29.85,NW,325,0.0,2.0,75,0.00,,OVC090,0.00,VWS V14.01,2013-07-01 10:33:00,
2013-07-01 05:34:00,60.9,52.9,29.85,NW,324,0.0,2.0,75,0.00,,OVC090,0.00,VWS V14.01,2013-07-01 10:34:00,
2013-07-01 05:35:00,60.9,52.9,29.85,NW,323,0.0,2.0,75,0.00,,OVC090,0.00,VWS V14.01,2013-07-01 10:35:00,
2013-07-01 05:37:00,60.9,52.9,29.85,NNW,328,0.0,4.0,75,0.00,,OVC090,0.00,VWS V14.01,2013-07-01 10:37:00,
2013-07-01 05:38:00,60.9,52.9,29.85,NW,313,0.0,4.0,75,0.00,,OVC090,0.00,VWS V14.01,2013-07-01 10:38:00,
2013-07-01 05:39:00,60.9,53.3,29.85,NW,313,0.0,4.0,76,0.00,,OVC090,0.00,VWS V14.01,2013-07-01 10:39:00,
2013-07-01 05:40:00,60.9,53.3,29.85,NW,310,0.0,4.0,76,0.00,,OVC090,0.00,VWS V14.01,2013-07-01 10:40:00,
2013-07-01 05:43:00,60.9,53.3,29.85,NNW,339,0.0,4.0,76,0.00,,OVC090,0.00,VWS V14.01,2013-07-01 10:43:00,
2013-07-01 05:44:00,60.9,53.3,29.85,NNW,339,0.0,4.0,76,0.00,,OVC090,0.00,VWS V14.01,2013-07-01 10:44:00,
2013-07-01 05:45:00,60.9,53.3,29.85,NE,35,0.0,4.0,76,0.00,,OVC090,0.00,VWS V14.01,2013-07-01 10:45:00,
2013-07-01 05:48:00,60.9,53.3,29.85,NNW,331,0.0,4.0,76,0.00,,-RA,0.00,VWS V14.01,2013-07-01 10:48:00,
2013-07-01 05:49:00,60.9,53.3,29.85,NNW,337,0.0,4.0,76,0.00,,-RA,0.00,VWS V14.01,2013-07-01 10:49:00,
2013-07-01 05:50:00,60.9,53.3,29.85,NNW,337,0.0,4.0,76,0.00,,-RA,0.00,VWS V14.01,2013-07-01 10:50:00,
2013-07-01 05:54:00,60.9,53.7,29.85,NNW,340,0.0,4.0,77,0.00,,-RA,0.00,VWS V14.01,2013-07-01 10:54:00,
2013-07-01 05:55:00,60.9,53.7,29.85,NNW,338,0.0,4.0,77,0.00,,-RA,0.00,VWS V14.01,2013-07-01 10:55:00,
2013-07-01 05:59:00,60.9,53.7,29.85,NW,314,0.0,4.0,77,0.00,,-RA,0.00,VWS V14.01,2013-07-01 10:59:00,
2013-07-01 06:00:00,60.9,53.7,29.86,North,355,4.0,4.0,77,0.00,,-RA,0.00,VWS V14.01,2013-07-01 11:00:00,
2013-07-01 06:01:00,60.9,53.7,29.86,NNW,344,0.0,4.0,77,0.00,,OVC085,0.00,VWS V14.01,2013-07-01 11:01:00,
2013-07-01 06:04:00,60.9,53.7,29.86,NNE,19,3.0,5.0,77,0.00,,OVC085,0.00,VWS V14.01,2013-07-01 11:04:00,
2013-07-01 06:05:00,60.9,53.7,29.86,NNE,19,0.0,5.0,77,0.00,,OVC085,0.00,VWS V14.01,2013-07-01 11:05:00,
2013-07-01 06:06:00,60.9,54.0,29.86,NNE,19,0.0,5.0,78,0.00,,OVC085,0.00,VWS V14.01,2013-07-01 11:06:00,
2013-07-01 06:09:00,60.9,54.0,29.86,NW,315,0.0,5.0,78,0.01,,OVC085,0.01,VWS V14.01,2013-07-01 11:09:00,
2013-07-01 06:10:00,60.9,54.0,29.86,NW,313,0.0,5.0,78,0.01,,OVC085,0.01,VWS V14.01,2013-07-01 11:10:00,
2013-07-01 06:11:00,60.9,54.3,29.86,NW,314,0.0,5.0,79,0.01,,OVC085,0.01,VWS V14.01,2013-07-01 11:11:00,
2013-07-01 06:14:00,60.8,54.3,29.86,NW,311,0.0,5.0,79,0.01,,OVC085,0.01,VWS V14.01,2013-07-01 11:14:00,
2013-07-01 06:15:00,60.8,54.3,29.86,NW,308,0.0,5.0,79,0.01,,-RA,0.01,VWS V14.01,2013-07-01 11:15:00,
2013-07-01 06:16:00,60.6,54.1,29.86,NW,308,0.0,5.0,79,0.01,,-RA,0.01,VWS V14.01,2013-07-01 11:16:00,
2013-07-01 06:20:00,60.6,54.4,29.86,NW,306,3.0,5.0,80,0.01,,-RA,0.01,VWS V14.01,2013-07-01 11:20:00,
2013-07-01 06:21:00,60.6,54.4,29.86,NW,313,3.0,5.0,80,0.01,,-RA,0.01,VWS V14.01,2013-07-01 11:21:00,
2013-07-01 06:22:00,60.6,54.4,29.86,NNW,337,0.0,5.0,80,0.01,,-RA,0.01,VWS V14.01,2013-07-01 11:22:00,
2013-07-01 06:25:00,60.6,54.4,29.86,NW,325,0.0,5.0,80,0.01,,-RA,0.01,VWS V14.01,2013-07-01 11:25:00,
2013-07-01 06:26:00,60.6,54.4,29.86,NW,320,0.0,5.0,80,0.01,,-RA,0.01,VWS V14.01,2013-07-01 11:26:00,
2013-07-01 06:27:00,60.6,54.4,29.86,NW,321,0.0,5.0,80,0.01,,-RA,0.01,VWS V14.01,2013-07-01 11:27:00,
2013-07-01 06:30:00,60.6,54.8,29.86,NW,317,0.0,5.0,81,0.01,,-RA,0.01,VWS V14.01,2013-07-01 11:30:00,
2013-07-01 06:31:00,60.6,54.8,29.86,NW,318,0.0,0.0,81,0.01,,-RA,0.01,VWS V14.01,2013-07-01 11:31:00,
2013-07-01 06:32:00,60.6,54.8,29.86,NW,326,0.0,1.0,81,0.01,,-RA,0.01,VWS V14.01,2013-07-01 11:32:00,
2013-07-01 06:35:00,60.6,54.8,29.86,NNW,333,0.0,1.0,81,0.01,,-RA,0.01,VWS V14.01,2013-07-01 11:35:00,
2013-07-01 06:36:00,60.6,54.8,29.86,NNW,329,0.0,1.0,81,0.01,,-RA,0.01,VWS V14.01,2013-07-01 11:36:00,
2013-07-01 06:37:00,60.6,54.8,29.86,NNW,333,0.0,1.0,81,0.01,,-RA,0.01,VWS V14.01,2013-07-01 11:37:00,
2013-07-01 06:40:00,60.6,54.8,29.86,NW,317,0.0,1.0,81,0.01,,-RA,0.01,VWS V14.01,2013-07-01 11:40:00,
2013-07-01 06:41:00,60.6,54.8,29.86,NE,43,4.0,5.0,81,0.01,,-RA,0.01,VWS V14.01,2013-07-01 11:41:00,
2013-07-01 06:42:00,60.6,54.8,29.86,NW,315,0.0,5.0,81,0.01,,-RA,0.01,VWS V14.01,2013-07-01 11:42:00,
2013-07-01 06:45:00,60.6,54.8,29.86,NW,323,0.0,5.0,81,0.01,,BKN120,0.01,VWS V14.01,2013-07-01 11:45:00,
2013-07-01 06:46:00,60.6,54.8,29.86,NNW,327,3.0,5.0,81,0.01,,BKN120,0.01,VWS V14.01,2013-07-01 11:46:00,
2013-07-01 06:47:00,60.6,54.8,29.86,NW,325,1.0,5.0,81,0.01,,BKN120,0.01,VWS V14.01,2013-07-01 11:47:00,
2013-07-01 06:48:00,60.6,54.8,29.86,NW,318,2.0,6.0,81,0.01,,BKN120,0.01,VWS V14.01,2013-07-01 11:48:00,
2013-07-01 06:51:00,60.6,54.8,29.86,NW,315,0.0,6.0,81,0.01,,BKN120,0.01,VWS V14.01,2013-07-01 11:51:00,
2013-07-01 06:52:00,60.6,54.8,29.86,NNW,327,2.0,6.0,81,0.01,,BKN120,0.01,VWS V14.01,2013-07-01 11:52:00,
2013-07-01 06:53:00,60.6,54.8,29.86,NNW,341,2.0,6.0,81,0.01,,BKN120,0.01,VWS V14.01,2013-07-01 11:53:00,
2013-07-01 06:56:00,60.6,54.8,29.86,North,5,0.0,6.0,81,0.01,,BKN120,0.01,VWS V14.01,2013-07-01 11:56:00,
2013-07-01 06:57:00,60.6,54.8,29.86,NNW,335,0.0,6.0,81,0.01,,BKN120,0.01,VWS V14.01,2013-07-01 11:57:00,
2013-07-01 06:58:00,60.6,54.8,29.86,NW,313,1.0,6.0,81,0.01,,BKN120,0.01,VWS V14.01,2013-07-01 11:58:00,
2013-07-01 07:00:00,60.6,54.4,29.86,NW,321,0.0,6.0,80,0.01,,,0.01,VWS V14.01,2013-07-01 12:00:00,
2013-07-01 07:01:00,60.6,54.4,29.86,NW,320,0.0,0.0,80,0.01,,BKN120,0.01,VWS V14.01,2013-07-01 12:01:00,
2013-07-01 07:02:00,60.6,54.8,29.86,NW,325,2.0,5.0,81,0.01,,SCT120,0.01,VWS V14.01,2013-07-01 12:02:00,
2013-07-01 07:03:00,60.6,54.4,29.86,NW,304,0.0,5.0,80,0.01,,SCT120,0.01,VWS V14.01,2013-07-01 12:03:00,
2013-07-01 07:06:00,60.6,54.8,29.86,NNW,327,0.0,5.0,81,0.01,,SCT120,0.01,VWS V14.01,2013-07-01 12:06:00,
2013-07-01 07:07:00,60.6,54.4,29.86,NNW,327,0.0,5.0,80,0.01,,SCT120,0.01,VWS V14.01,2013-07-01 12:07:00,
2013-07-01 07:08:00,60.6,54.8,29.86,NNW,327,0.0,5.0,81,0.01,,SCT120,0.01,VWS V14.01,2013-07-01 12:08:00,
2013-07-01 07:09:00,60.8,54.9,29.86,NNW,327,0.0,5.0,81,0.01,,SCT120,0.01,VWS V14.01,2013-07-01 12:09:00,
2013-07-01 07:11:00,60.8,54.9,29.86,NNW,329,2.0,5.0,81,0.01,,SCT120,0.01,VWS V14.01,2013-07-01 12:11:00,
2013-07-01 07:12:00,60.8,54.9,29.86,NNW,341,0.0,5.0,81,0.01,,SCT120,0.01,VWS V14.01,2013-07-01 12:12:00,
2013-07-01 07:13:00,60.8,54.9,29.86,NW,324,0.0,5.0,81,0.01,,SCT120,0.01,VWS V14.01,2013-07-01 12:13:00,
2013-07-01 07:14:00,60.8,54.9,29.86,NW,323,0.0,5.0,81,0.01,,SCT120,0.01,VWS V14.01,2013-07-01 12:14:00,
2013-07-01 07:16:00,60.8,54.9,29.86,NNW,331,0.0,5.0,81,0.01,,SCT120,0.01,VWS V14.01,2013-07-01 12:16:00,
2013-07-01 07:17:00,60.9,55.0,29.86,NW,310,0.0,5.0,81,0.01,,SCT120,0.01,VWS V14.01,2013-07-01 12:17:00,
2013-07-01 07:18:00,60.9,55.0,29.86,NW,316,2.0,5.0,81,0.01,,SCT120,0.01,VWS V14.01,2013-07-01 12:18:00,
2013-07-01 07:19:00,60.9,55.0,29.86,NW,324,0.0,5.0,81,0.01,,SCT120,0.01,VWS V14.01,2013-07-01 12:19:00,
2013-07-01 07:21:00,61.1,55.2,29.86,NW,324,0.0,5.0,81,0.01,,SCT120,0.01,VWS V14.01,2013-07-01 12:21:00,
2013-07-01 07:22:00,61.2,55.3,29.86,NNW,328,0.0,5.0,81,0.01,,SCT120,0.01,VWS V14.01,2013-07-01 12:22:00,
2013-07-01 07:23:00,61.2,55.3,29.86,North,355,0.0,5.0,81,0.01,,SCT120,0.01,VWS V14.01,2013-07-01 12:23:00,
2013-07-01 07:24:00,61.2,55.3,29.86,NNE,19,0.0,5.0,81,0.01,,SCT120,0.01,VWS V14.01,2013-07-01 12:24:00,
2013-07-01 07:26:00,61.4,55.2,29.86,NW,314,0.0,5.0,80,0.01,,SCT120,0.01,VWS V14.01,2013-07-01 12:26:00,
2013-07-01 07:28:00,61.5,55.3,29.86,North,9,3.0,5.0,80,0.01,,SCT120,0.01,VWS V14.01,2013-07-01 12:28:00,
2013-07-01 07:29:00,61.5,55.3,29.86,NW,310,7.0,7.0,80,0.01,,SCT120,0.01,VWS V14.01,2013-07-01 12:29:00,
2013-07-01 07:30:00,61.7,55.1,29.87,NW,321,0.0,7.0,79,0.01,,,0.01,VWS V14.01,2013-07-01 12:30:00,
2013-07-01 07:31:00,61.7,55.1,29.87,NW,308,0.0,0.0,79,0.00,,SCT120,0.01,VWS V14.01,2013-07-01 12:31:00,
2013-07-01 07:32:00,61.7,55.1,29.87,NW,311,0.0,0.0,79,0.00,,SCT120,0.01,VWS V14.01,2013-07-01 12:32:00,
2013-07-01 07:33:00,61.9,55.7,29.87,NW,322,4.0,4.0,80,0.00,,SCT120,0.01,VWS V14.01,2013-07-01 12:33:00,
2013-07-01 07:34:00,61.9,55.3,29.87,North,5,3.0,6.0,79,0.00,,SCT120,0.01,VWS V14.01,2013-07-01 12:34:00,
2013-07-01 07:36:00,62.0,55.4,29.87,NNW,345,4.0,6.0,79,0.00,,SCT120,0.01,VWS V14.01,2013-07-01 12:36:00,
2013-07-01 07:37:00,62.0,55.4,29.87,NW,320,0.0,6.0,79,0.00,,SCT120,0.01,VWS V14.01,2013-07-01 12:37:00,
2013-07-01 07:38:00,62.0,55.4,29.87,North,355,0.0,6.0,79,0.00,,SCT120,0.01,VWS V14.01,2013-07-01 12:38:00,
2013-07-01 07:39:00,62.0,55.4,29.87,North,355,0.0,6.0,79,0.00,,SCT120,0.01,VWS V14.01,2013-07-01 12:39:00,
2013-07-01 07:42:00,62.2,55.6,29.87,North,9,0.0,6.0,79,0.00,,SCT120,0.01,VWS V14.01,2013-07-01 12:42:00,
2013-07-01 07:43:00,62.2,55.6,29.87,NW,313,4.0,6.0,79,0.00,,SCT120,0.01,VWS V14.01,2013-07-01 12:43:00,
2013-07-01 07:44:00,62.2,55.6,29.87,North,360,0.0,6.0,79,0.00,,SCT120,0.01,VWS V14.01,2013-07-01 12:44:00,
2013-07-01 07:45:00,62.3,55.7,29.87,North,360,0.0,6.0,79,0.00,,SCT120,0.01,VWS V14.01,2013-07-01 12:45:00,
2013-07-01 07:47:00,62.3,55.7,29.87,North,11,0.0,6.0,79,0.00,,SCT120,0.01,VWS V14.01,2013-07-01 12:47:00,
2013-07-01 07:48:00,62.3,55.7,29.87,North,11,0.0,6.0,79,0.00,,SCT120,0.01,VWS V14.01,2013-07-01 12:48:00,
2013-07-01 07:49:00,62.3,55.7,29.87,NW,319,0.0,6.0,79,0.00,,SCT120,0.01,VWS V14.01,2013-07-01 12:49:00,
2013-07-01 07:50:00,62.3,55.7,29.87,NNW,329,0.0,6.0,79,0.00,,SCT120,0.01,VWS V14.01,2013-07-01 12:50:00,
2013-07-01 07:52:00,62.5,55.9,29.87,NW,322,0.0,6.0,79,0.00,,SCT120,0.01,VWS V14.01,2013-07-01 12:52:00,
2013-07-01 07:53:00,62.5,55.9,29.87,NW,323,0.0,6.0,79,0.00,,SCT120,0.01,VWS V14.01,2013-07-01 12:53:00,
2013-07-01 07:54:00,62.5,55.9,29.87,NNW,340,0.0,6.0,79,0.00,,SCT120,0.01,VWS V14.01,2013-07-01 12:54:00,
2013-07-01 07:55:00,62.6,56.0,29.87,NW,314,0.0,6.0,79,0.00,,SCT120,0.01,VWS V14.01,2013-07-01 12:55:00,
2013-07-01 07:57:00,62.6,56.0,29.87,North,355,0.0,6.0,79,0.00,,SCT120,0.01,VWS V14.01,2013-07-01 12:57:00,
2013-07-01 07:58:00,62.6,56.0,29.87,NNW,333,3.0,6.0,79,0.00,,SCT120,0.01,VWS V14.01,2013-07-01 12:58:00,
2013-07-01 07:59:00,62.6,56.0,29.87,NW,304,0.0,6.0,79,0.00,,SCT120,0.01,VWS V14.01,2013-07-01 12:59:00,
2013-07-01 08:00:00,62.8,56.2,29.88,WNW,302,0.0,6.0,79,0.00,,SCT120,0.01,VWS V14.01,2013-07-01 13:00:00,
2013-07-01 08:02:00,62.8,56.2,29.88,NW,318,0.0,4.0,79,0.00,,SCT120,0.01,VWS V14.01,2013-07-01 13:02:00,
2013-07-01 08:03:00,62.8,56.2,29.88,NNW,331,2.0,4.0,79,0.00,,SCT120,0.01,VWS V14.01,2013-07-01 13:03:00,
2013-07-01 08:04:00,63.0,56.4,29.88,NNW,342,1.0,4.0,79,0.00,,SCT120,0.01,VWS V14.01,2013-07-01 13:04:00,
2013-07-01 08:05:00,63.0,56.4,29.88,NNW,342,0.0,4.0,79,0.00,,SCT120,0.01,VWS V14.01,2013-07-01 13:05:00,
2013-07-01 08:07:00,63.0,56.4,29.88,NW,312,0.0,4.0,79,0.00,,SCT120,0.01,VWS V14.01,2013-07-01 13:07:00,
2013-07-01 08:08:00,63.1,56.5,29.88,NW,316,0.0,4.0,79,0.00,,SCT120,0.01,VWS V14.01,2013-07-01 13:08:00,
2013-07-01 08:10:00,63.1,56.5,29.88,North,355,2.0,6.0,79,0.00,,SCT120,0.01,VWS V14.01,2013-07-01 13:10:00,
2013-07-01 08:12:00,63.3,56.3,29.88,NW,313,0.0,6.0,78,0.00,,SCT120,0.01,VWS V14.01,2013-07-01 13:12:00,
2013-07-01 08:13:00,63.3,56.3,29.88,NW,324,0.0,6.0,78,0.00,,SCT120,0.01,VWS V14.01,2013-07-01 13:13:00,
2013-07-01 08:15:00,63.3,56.3,29.89,NW,309,0.0,6.0,78,0.00,,SCT120,0.01,VWS V14.01,2013-07-01 13:15:00,
2013-07-01 08:17:00,63.4,56.4,29.89,NW,324,0.0,6.0,78,0.00,,SCT120,0.01,VWS V14.01,2013-07-01 13:17:00,
2013-07-01 08:18:00,63.4,56.1,29.89,NNW,343,0.0,6.0,77,0.00,,SCT120,0.01,VWS V14.01,2013-07-01 13:18:00,
2013-07-01 08:20:00,63.6,56.6,29.89,NNW,331,0.0,6.0,78,0.00,,SCT120,0.01,VWS V14.01,2013-07-01 13:20:00,
2013-07-01 08:22:00,63.6,56.3,29.89,North,9,0.0,6.0,77,0.00,,SCT120,0.01,VWS V14.01,2013-07-01 13:22:00,
2013-07-01 08:23:00,63.6,56.3,29.89,NNW,335,2.0,6.0,77,0.00,,SCT120,0.01,VWS V14.01,2013-07-01 13:23:00,
2013-07-01 08:25:00,63.8,56.5,29.89,NW,311,0.0,6.0,77,0.00,,SCT120,0.01,VWS V14.01,2013-07-01 13:25:00,
2013-07-01 08:26:00,63.8,56.8,29.89,NW,314,0.0,6.0,78,0.00,,SCT120,0.01,VWS V14.01,2013-07-01 13:26:00,
2013-07-01 08:27:00,63.8,56.8,29.89,NW,312,0.0,6.0,78,0.00,,SCT120,0.01,VWS V14.01,2013-07-01 13:27:00,
2013-07-01 08:28:00,63.8,56.5,29.89,NW,325,0.0,6.0,77,0.00,,SCT120,0.01,VWS V14.01,2013-07-01 13:28:00,
2013-07-01 08:30:00,63.9,56.6,29.89,NNW,327,0.0,6.0,77,0.00,,SCT120,0.01,VWS V14.01,2013-07-01 13:30:00,
2013-07-01 08:31:00,63.9,56.6,29.89,NNE,14,5.0,5.0,77,0.00,,SCT120,0.01,VWS V14.01,2013-07-01 13:31:00,
2013-07-01 08:32:00,63.9,56.6,29.89,WNW,294,0.0,5.0,77,0.00,,SCT120,0.01,VWS V14.01,2013-07-01 13:32:00,
2013-07-01 08:33:00,63.9,56.6,29.89,North,355,7.0,7.0,77,0.00,,SCT120,0.01,VWS V14.01,2013-07-01 13:33:00,
2013-07-01 08:35:00,64.1,56.8,29.89,NW,319,0.0,7.0,77,0.00,,SCT120,0.01,VWS V14.01,2013-07-01 13:35:00,
2013-07-01 08:36:00,64.1,56.8,29.89,NW,310,0.0,7.0,77,0.00,,SCT120,0.01,VWS V14.01,2013-07-01 13:36:00,
2013-07-01 08:38:00,64.1,56.8,29.89,NW,324,4.0,7.0,77,0.00,,SCT120,0.01,VWS V14.01,2013-07-01 13:38:00,
2013-07-01 08:39:00,64.1,56.4,29.89,NNW,338,1.0,8.0,76,0.00,,SCT120,0.01,VWS V14.01,2013-07-01 13:39:00,
2013-07-01 08:41:00,64.2,56.5,29.89,NW,321,0.0,9.0,76,0.00,,SCT120,0.01,VWS V14.01,2013-07-01 13:41:00,
2013-07-01 08:43:00,64.2,56.5,29.89,NW,316,0.0,9.0,76,0.00,,SCT120,0.01,VWS V14.01,2013-07-01 13:43:00,
2013-07-01 08:44:00,64.4,56.7,29.89,NNW,342,0.0,9.0,76,0.00,,SCT120,0.01,VWS V14.01,2013-07-01 13:44:00,
2013-07-01 08:46:00,64.4,56.3,29.89,North,355,7.0,9.0,75,0.00,,BKN110,0.01,VWS V14.01,2013-07-01 13:46:00,
2013-07-01 08:47:00,64.4,56.3,29.89,NW,323,5.0,10.0,75,0.00,,BKN110,0.01,VWS V14.01,2013-07-01 13:47:00,
2013-07-01 08:48:00,64.6,56.5,29.89,NW,325,3.0,10.0,75,0.00,,BKN110,0.01,VWS V14.01,2013-07-01 13:48:00,
2013-07-01 08:49:00,64.7,56.6,29.89,NNW,328,0.0,10.0,75,0.00,,BKN110,0.01,VWS V14.01,2013-07-01 13:49:00,
2013-07-01 08:51:00,64.9,56.8,29.89,NW,313,1.0,10.0,75,0.00,,BKN110,0.01,VWS V14.01,2013-07-01 13:51:00,
2013-07-01 08:52:00,64.9,56.8,29.89,NW,322,4.0,10.0,75,0.00,,BKN110,0.01,VWS V14.01,2013-07-01 13:52:00,
2013-07-01 08:54:00,65.1,56.6,29.89,NW,320,7.0,10.0,74,0.00,,BKN110,0.01,VWS V14.01,2013-07-01 13:54:00,
2013-07-01 08:56:00,65.2,56.3,29.89,NW,316,0.0,10.0,73,0.00,,BKN110,0.01,VWS V14.01,2013-07-01 13:56:00,
2013-07-01 08:57:00,65.4,56.5,29.89,NW,317,0.0,10.0,73,0.00,,BKN110,0.01,VWS V14.01,2013-07-01 13:57:00,
2013-07-01 08:59:00,65.5,56.6,29.89,WNW,296,2.0,10.0,73,0.00,,BKN110,0.01,VWS V14.01,2013-07-01 13:59:00,
2013-07-01 09:00:00,65.5,56.6,29.88,NNW,331,1.0,10.0,73,0.00,,,0.01,VWS V14.01,2013-07-01 14:00:00,
2013-07-01 09:01:00,65.7,56.8,29.88,NW,326,0.0,1.0,73,0.00,,SCT110,0.01,VWS V14.01,2013-07-01 14:01:00,
2013-07-01 09:02:00,65.7,56.8,29.88,North,355,0.0,3.0,73,0.00,,SCT110,0.01,VWS V14.01,2013-07-01 14:02:00,
2013-07-01 09:04:00,65.9,57.0,29.88,NNE,12,4.0,7.0,73,0.00,,SCT110,0.01,VWS V14.01,2013-07-01 14:04:00,
2013-07-01 09:06:00,66.0,57.1,29.88,NNW,339,0.0,7.0,73,0.00,,SCT110,0.01,VWS V14.01,2013-07-01 14:06:00,
2013-07-01 09:07:00,66.0,57.5,29.88,NNW,339,0.0,7.0,74,0.00,,SCT110,0.01,VWS V14.01,2013-07-01 14:07:00,
2013-07-01 09:09:00,66.2,57.3,29.88,NNE,24,1.0,9.0,73,0.00,,SCT110,0.01,VWS V14.01,2013-07-01 14:09:00,
2013-07-01 09:10:00,66.2,56.9,29.88,NNW,340,1.0,9.0,72,0.00,,SCT110,0.01,VWS V14.01,2013-07-01 14:10:00,
2013-07-01 09:11:00,66.3,57.4,29.88,WNW,298,1.0,9.0,73,0.00,,SCT110,0.01,VWS V14.01,2013-07-01 14:11:00,
2013-07-01 09:12:00,66.3,57.4,29.88,NNW,338,5.0,9.0,73,0.00,,SCT110,0.01,VWS V14.01,2013-07-01 14:12:00,
2013-07-01 09:14:00,66.5,57.6,29.88,NW,318,0.0,9.0,73,0.00,,SCT110,0.01,VWS V14.01,2013-07-01 14:14:00,
2013-07-01 09:15:00,66.5,57.6,29.88,NW,314,0.0,9.0,73,0.00,,SCT110,0.01,VWS V14.01,2013-07-01 14:15:00,
2013-07-01 09:17:00,66.7,57.4,29.88,NNW,331,10.0,10.0,72,0.00,,SCT110,0.01,VWS V14.01,2013-07-01 14:17:00,
2013-07-01 09:20:00,67.0,57.7,29.88,NW,320,6.0,10.0,72,0.00,,SCT110,0.01,VWS V14.01,2013-07-01 14:20:00,
2013-07-01 09:22:00,67.0,57.3,29.88,North,355,0.0,10.0,71,0.00,,SCT110,0.01,VWS V14.01,2013-07-01 14:22:00,
2013-07-01 09:25:00,67.0,57.3,29.88,NW,324,0.0,10.0,71,0.00,,SCT110,0.01,VWS V14.01,2013-07-01 14:25:00,
2013-07-01 09:26:00,67.0,57.7,29.88,NW,316,4.0,10.0,72,0.00,,SCT110,0.01,VWS V14.01,2013-07-01 14:26:00,
2013-07-01 09:27:00,67.0,57.3,29.88,North,360,0.0,10.0,71,0.00,,SCT110,0.01,VWS V14.01,2013-07-01 14:27:00,
2013-07-01 09:30:00,67.2,57.5,29.88,NW,319,0.0,10.0,71,0.00,,SCT110,0.01,VWS V14.01,2013-07-01 14:30:00,
2013-07-01 09:31:00,67.2,57.9,29.88,WNW,299,2.0,3.0,72,0.00,,SCT110,0.01,VWS V14.01,2013-07-01 14:31:00,
2013-07-01 09:32:00,67.3,57.6,29.88,NNW,335,9.0,9.0,71,0.00,,SCT110,0.01,VWS V14.01,2013-07-01 14:32:00,
2013-07-01 09:33:00,67.2,57.5,29.88,NW,314,3.0,10.0,71,0.00,,SCT110,0.01,VWS V14.01,2013-07-01 14:33:00,
2013-07-01 09:36:00,67.2,57.5,29.88,North,5,3.0,10.0,71,0.00,,SCT110,0.01,VWS V14.01,2013-07-01 14:36:00,
2013-07-01 09:37:00,67.3,57.6,29.88,North,5,2.0,10.0,71,0.00,,SCT110,0.01,VWS V14.01,2013-07-01 14:37:00,
2013-07-01 09:38:00,67.3,57.6,29.88,North,355,3.0,10.0,71,0.00,,SCT110,0.01,VWS V14.01,2013-07-01 14:38:00,
2013-07-01 09:41:00,67.7,58.4,29.88,North,351,0.0,10.0,72,0.00,,SCT110,0.01,VWS V14.01,2013-07-01 14:41:00,
2013-07-01 09:42:00,67.7,58.4,29.88,North,5,4.0,10.0,72,0.00,,SCT110,0.01,VWS V14.01,2013-07-01 14:42:00,
2013-07-01 09:43:00,67.7,58.0,29.88,NNW,327,0.0,10.0,71,0.00,,SCT110,0.01,VWS V14.01,2013-07-01 14:43:00,
2013-07-01 09:46:00,68.0,58.3,29.88,NW,314,3.0,10.0,71,0.00,,CLR,0.01,VWS V14.01,2013-07-01 14:46:00,
2013-07-01 09:47:00,68.2,58.5,29.88,NNW,335,4.0,10.0,71,0.00,,CLR,0.01,VWS V14.01,2013-07-01 14:47:00,
2013-07-01 09:48:00,68.2,58.0,29.88,North,355,3.0,10.0,70,0.00,,CLR,0.01,VWS V14.01,2013-07-01 14:48:00,
2013-07-01 09:51:00,68.2,58.0,29.88,North,350,0.0,10.0,70,0.00,,CLR,0.01,VWS V14.01,2013-07-01 14:51:00,
2013-07-01 09:52:00,68.2,58.0,29.88,NNW,327,0.0,10.0,70,0.00,,CLR,0.01,VWS V14.01,2013-07-01 14:52:00,
2013-07-01 09:53:00,68.2,58.0,29.88,North,355,3.0,10.0,70,0.00,,CLR,0.01,VWS V14.01,2013-07-01 14:53:00,
2013-07-01 09:56:00,68.2,58.5,29.88,NW,315,0.0,10.0,71,0.00,,CLR,0.01,VWS V14.01,2013-07-01 14:56:00,
2013-07-01 09:57:00,68.2,58.5,29.88,NW,317,0.0,10.0,71,0.00,,CLR,0.01,VWS V14.01,2013-07-01 14:57:00,
2013-07-01 09:58:00,68.3,58.5,29.88,NNW,344,0.0,10.0,71,0.00,,CLR,0.01,VWS V14.01,2013-07-01 14:58:00,
2013-07-01 10:00:00,68.3,58.5,29.88,NNW,338,0.0,10.0,71,0.00,,,0.01,VWS V14.01,2013-07-01 15:00:00,
2013-07-01 10:01:00,68.5,58.3,29.88,NW,315,2.0,9.0,70,0.00,,CLR,0.01,VWS V14.01,2013-07-01 15:01:00,
2013-07-01 10:02:00,68.5,58.3,29.88,NNW,328,0.0,9.0,70,0.00,,CLR,0.01,VWS V14.01,2013-07-01 15:02:00,
2013-07-01 10:03:00,68.5,58.3,29.88,NNW,329,3.0,9.0,70,0.00,,CLR,0.01,VWS V14.01,2013-07-01 15:03:00,
2013-07-01 10:07:00,68.8,58.6,29.88,NW,305,3.0,9.0,70,0.00,,CLR,0.01,VWS V14.01,2013-07-01 15:07:00,
2013-07-01 10:08:00,68.8,58.6,29.88,NNE,13,7.0,9.0,70,0.00,,CLR,0.01,VWS V14.01,2013-07-01 15:08:00,
2013-07-01 10:10:00,69.0,58.0,29.88,NW,315,0.0,9.0,68,0.00,,CLR,0.01,VWS V14.01,2013-07-01 15:10:00,
2013-07-01 10:12:00,69.2,59.0,29.88,NW,323,5.0,11.0,70,0.00,,CLR,0.01,VWS V14.01,2013-07-01 15:12:00,
2013-07-01 10:13:00,69.2,58.2,29.88,NW,306,5.0,11.0,68,0.00,,CLR,0.01,VWS V14.01,2013-07-01 15:13:00,
2013-07-01 10:14:00,69.2,58.2,29.88,NW,322,4.0,11.0,68,0.00,,CLR,0.01,VWS V14.01,2013-07-01 15:14:00,
2013-07-01 10:15:00,69.3,58.7,29.88,NNE,19,4.0,11.0,69,0.00,,CLR,0.01,VWS V14.01,2013-07-01 15:15:00,
2013-07-01 10:17:00,69.3,58.3,29.88,NNW,331,0.0,11.0,68,0.00,,CLR,0.01,VWS V14.01,2013-07-01 15:17:00,
2013-07-01 10:18:00,69.3,58.7,29.88,WNW,302,1.0,11.0,69,0.00,,CLR,0.01,VWS V14.01,2013-07-01 15:18:00,
2013-07-01 10:19:00,69.3,58.7,29.88,NW,325,0.0,11.0,69,0.00,,CLR,0.01,VWS V14.01,2013-07-01 15:19:00,
2013-07-01 10:20:00,69.5,59.3,29.88,NNW,345,0.0,11.0,70,0.00,,CLR,0.01,VWS V14.01,2013-07-01 15:20:00,
2013-07-01 10:22:00,69.7,59.1,29.88,NNE,33,8.0,11.0,69,0.00,,CLR,0.01,VWS V14.01,2013-07-01 15:22:00,
2013-07-01 10:23:00,69.7,58.3,29.88,NW,323,3.0,11.0,67,0.00,,CLR,0.01,VWS V14.01,2013-07-01 15:23:00,
2013-07-01 10:24:00,69.7,58.7,29.88,North,360,3.0,11.0,68,0.00,,CLR,0.01,VWS V14.01,2013-07-01 15:24:00,
2013-07-01 10:25:00,69.7,59.1,29.88,NNE,30,5.0,11.0,69,0.00,,CLR,0.01,VWS V14.01,2013-07-01 15:25:00,
2013-07-01 10:27:00,69.8,58.8,29.88,NW,326,2.0,11.0,68,0.00,,CLR,0.01,VWS V14.01,2013-07-01 15:27:00,
2013-07-01 10:28:00,69.8,58.8,29.88,NNW,330,5.0,11.0,68,0.00,,CLR,0.01,VWS V14.01,2013-07-01 15:28:00,
2013-07-01 10:29:00,69.8,58.8,29.88,NNE,27,5.0,11.0,68,0.00,,CLR,0.01,VWS V14.01,2013-07-01 15:29:00,
2013-07-01 10:30:00,70.0,59.0,29.88,North,360,0.0,11.0,68,0.00,,,0.01,VWS V14.01,2013-07-01 15:30:00,
2013-07-01 10:31:00,70.0,59.0,29.88,North,360,0.0,0.0,68,0.00,,CLR,0.01,VWS V14.01,2013-07-01 15:31:00,
2013-07-01 10:32:00,70.2,59.2,29.88,NNW,348,0.0,7.0,68,0.00,,CLR,0.01,VWS V14.01,2013-07-01 15:32:00,
2013-07-01 10:33:00,70.2,59.6,29.88,NNW,344,0.0,7.0,69,0.00,,CLR,0.01,VWS V14.01,2013-07-01 15:33:00,
2013-07-01 10:34:00,70.2,59.6,29.88,NW,325,0.0,7.0,69,0.00,,CLR,0.01,VWS V14.01,2013-07-01 15:34:00,
2013-07-01 10:36:00,70.2,59.2,29.88,NNE,13,6.0,11.0,68,0.00,,CLR,0.01,VWS V14.01,2013-07-01 15:36:00,
2013-07-01 10:38:00,70.2,58.7,29.88,NW,317,0.0,11.0,67,0.00,,CLR,0.01,VWS V14.01,2013-07-01 15:38:00,
2013-07-01 10:39:00,70.2,59.6,29.88,NE,38,5.0,11.0,69,0.00,,CLR,0.01,VWS V14.01,2013-07-01 15:39:00,
2013-07-01 10:41:00,70.0,58.5,29.88,WNW,302,3.0,12.0,67,0.00,,CLR,0.01,VWS V14.01,2013-07-01 15:41:00,
2013-07-01 10:43:00,70.0,59.0,29.88,NNW,333,5.0,12.0,68,0.00,,CLR,0.01,VWS V14.01,2013-07-01 15:43:00,
2013-07-01 10:44:00,70.0,59.0,29.88,NW,305,6.0,12.0,68,0.00,,CLR,0.01,VWS V14.01,2013-07-01 15:44:00,
2013-07-01 10:46:00,69.8,58.8,29.88,North,5,10.0,12.0,68,0.00,,CLR,0.01,VWS V14.01,2013-07-01 15:46:00,
2013-07-01 10:48:00,69.8,58.8,29.88,NNW,346,0.0,12.0,68,0.00,,CLR,0.01,VWS V14.01,2013-07-01 15:48:00,
2013-07-01 10:49:00,69.8,59.2,29.88,NNW,342,6.0,12.0,69,0.00,,CLR,0.01,VWS V14.01,2013-07-01 15:49:00,
2013-07-01 10:51:00,69.8,59.2,29.88,NNW,346,3.0,12.0,69,0.00,,CLR,0.01,VWS V14.01,2013-07-01 15:51:00,
2013-07-01 10:53:00,69.8,59.2,29.88,NNW,333,3.0,12.0,69,0.00,,CLR,0.01,VWS V14.01,2013-07-01 15:53:00,
2013-07-01 10:54:00,70.0,59.4,29.88,NW,306,0.0,12.0,69,0.00,,CLR,0.01,VWS V14.01,2013-07-01 15:54:00,
2013-07-01 10:57:00,70.2,59.6,29.88,NW,314,0.0,12.0,69,0.00,,CLR,0.01,VWS V14.01,2013-07-01 15:57:00,
2013-07-01 10:58:00,70.3,59.7,29.88,North,360,0.0,12.0,69,0.00,,CLR,0.01,VWS V14.01,2013-07-01 15:58:00,
2013-07-01 10:59:00,70.3,59.7,29.88,North,355,0.0,12.0,69,0.00,,CLR,0.01,VWS V14.01,2013-07-01 15:59:00,
2013-07-01 11:00:00,70.5,59.8,29.88,NW,310,4.0,12.0,69,0.00,,,0.01,VWS V14.01,2013-07-01 16:00:00,
2013-07-01 11:02:00,70.7,59.6,29.88,NNW,342,12.0,12.0,68,0.00,,CLR,0.01,VWS V14.01,2013-07-01 16:02:00,
2013-07-01 11:03:00,70.7,59.2,29.88,North,355,0.0,12.0,67,0.00,,CLR,0.01,VWS V14.01,2013-07-01 16:03:00,
2013-07-01 11:04:00,70.7,59.2,29.88,North,349,1.0,12.0,67,0.00,,CLR,0.01,VWS V14.01,2013-07-01 16:04:00,
2013-07-01 11:07:00,70.8,59.3,29.88,WNW,294,5.0,12.0,67,0.00,,CLR,0.01,VWS V14.01,2013-07-01 16:07:00,
2013-07-01 11:09:00,70.8,59.3,29.88,NW,321,0.0,12.0,67,0.00,,CLR,0.01,VWS V14.01,2013-07-01 16:09:00,
2013-07-01 11:10:00,70.8,59.7,29.88,North,350,3.0,12.0,68,0.00,,CLR,0.01,VWS V14.01,2013-07-01 16:10:00,
2013-07-01 11:12:00,71.0,59.9,29.88,NW,309,4.0,12.0,68,0.00,,CLR,0.01,VWS V14.01,2013-07-01 16:12:00,
2013-07-01 11:14:00,71.0,59.5,29.88,North,350,0.0,12.0,67,0.00,,CLR,0.01,VWS V14.01,2013-07-01 16:14:00,
2013-07-01 11:15:00,71.0,59.5,29.88,NNE,20,2.0,12.0,67,0.00,,CLR,0.01,VWS V14.01,2013-07-01 16:15:00,
2013-07-01 11:17:00,71.0,59.9,29.88,NW,321,0.0,12.0,68,0.00,,CLR,0.01,VWS V14.01,2013-07-01 16:17:00,
2013-07-01 11:19:00,71.0,59.5,29.88,WNW,292,1.0,12.0,67,0.00,,CLR,0.01,VWS V14.01,2013-07-01 16:19:00,
2013-07-01 11:20:00,71.0,59.5,29.88,NNW,348,0.0,12.0,67,0.00,,CLR,0.01,VWS V14.01,2013-07-01 16:20:00,
2013-07-01 11:22:00,71.0,59.1,29.88,North,5,9.0,13.0,66,0.00,,CLR,0.01,VWS V14.01,2013-07-01 16:22:00,
2013-07-01 11:24:00,71.0,59.5,29.88,ENE,68,2.0,13.0,67,0.00,,CLR,0.01,VWS V14.01,2013-07-01 16:24:00,
2013-07-01 11:25:00,71.2,59.3,29.88,NNW,342,4.0,13.0,66,0.00,,CLR,0.01,VWS V14.01,2013-07-01 16:25:00,
2013-07-01 11:27:00,71.4,59.9,29.88,ENE,70,0.0,13.0,67,0.00,,CLR,0.01,VWS V14.01,2013-07-01 16:27:00,
2013-07-01 11:29:00,71.5,60.0,29.88,North,5,0.0,13.0,67,0.00,,CLR,0.01,VWS V14.01,2013-07-01 16:29:00,
2013-07-01 11:30:00,71.5,60.0,29.88,WNW,292,0.0,13.0,67,0.00,,CLR,0.01,VWS V14.01,2013-07-01 16:30:00,
2013-07-01 11:32:00,71.7,59.3,29.88,NNE,27,10.0,10.0,65,0.00,,CLR,0.01,VWS V14.01,2013-07-01 16:32:00,
2013-07-01 11:34:00,71.7,59.3,29.88,North,355,4.0,11.0,65,0.00,,CLR,0.01,VWS V14.01,2013-07-01 16:34:00,
2013-07-01 11:35:00,71.7,59.3,29.88,NNW,345,3.0,11.0,65,0.00,,CLR,0.01,VWS V14.01,2013-07-01 16:35:00,
2013-07-01 11:37:00,71.7,59.3,29.88,NNW,331,0.0,12.0,65,0.00,,CLR,0.01,VWS V14.01,2013-07-01 16:37:00,
2013-07-01 11:39:00,71.7,58.9,29.88,NW,317,5.0,12.0,64,0.00,,CLR,0.01,VWS V14.01,2013-07-01 16:39:00,
2013-07-01 11:40:00,71.7,59.3,29.88,NE,44,7.0,12.0,65,0.00,,CLR,0.01,VWS V14.01,2013-07-01 16:40:00,
2013-07-01 11:42:00,71.7,58.9,29.88,NNE,17,4.0,12.0,64,0.00,,CLR,0.01,VWS V14.01,2013-07-01 16:42:00,
2013-07-01 11:44:00,71.7,58.9,29.88,NNE,17,6.0,12.0,64,0.00,,CLR,0.01,VWS V14.01,2013-07-01 16:44:00,
2013-07-01 11:45:00,71.7,58.9,29.89,NE,39,2.0,12.0,64,0.00,,CLR,0.01,VWS V14.01,2013-07-01 16:45:00,
2013-07-01 11:46:00,71.7,58.9,29.89,ENE,65,2.0,12.0,64,0.00,,CLR,0.01,VWS V14.01,2013-07-01 16:46:00,
2013-07-01 11:47:00,71.7,58.5,29.89,NNE,24,1.0,12.0,63,0.00,,CLR,0.01,VWS V14.01,2013-07-01 16:47:00,
2013-07-01 11:49:00,71.9,59.1,29.89,NW,325,0.0,12.0,64,0.00,,CLR,0.01,VWS V14.01,2013-07-01 16:49:00,
2013-07-01 11:50:00,71.9,59.5,29.89,North,360,0.0,12.0,65,0.00,,CLR,0.01,VWS V14.01,2013-07-01 16:50:00,
2013-07-01 11:51:00,71.9,59.5,29.89,North,355,7.0,12.0,65,0.00,,CLR,0.01,VWS V14.01,2013-07-01 16:51:00,
2013-07-01 11:52:00,72.0,59.2,29.89,North,355,0.0,12.0,64,0.00,,CLR,0.01,VWS V14.01,2013-07-01 16:52:00,
2013-07-01 11:54:00,72.2,59.8,29.89,NNE,17,6.0,12.0,65,0.00,,CLR,0.01,VWS V14.01,2013-07-01 16:54:00,
2013-07-01 11:55:00,72.2,59.4,29.89,NW,316,3.0,12.0,64,0.00,,CLR,0.01,VWS V14.01,2013-07-01 16:55:00,
2013-07-01 11:56:00,72.2,59.4,29.89,WNW,294,0.0,12.0,64,0.00,,CLR,0.01,VWS V14.01,2013-07-01 16:56:00,
2013-07-01 11:57:00,72.2,58.9,29.89,North,360,3.0,12.0,63,0.00,,CLR,0.01,VWS V14.01,2013-07-01 16:57:00,
2013-07-01 12:00:00,72.2,58.5,29.89,NNW,330,0.0,12.0,62,0.00,,CLR,0.01,VWS V14.01,2013-07-01 17:00:00,
2013-07-01 12:01:00,72.2,58.0,29.89,NW,325,0.0,12.0,61,0.00,,CLR,0.01,VWS V14.01,2013-07-01 17:01:00,
2013-07-01 12:02:00,72.4,58.2,29.89,NW,314,7.0,7.0,61,0.00,,CLR,0.01,VWS V14.01,2013-07-01 17:02:00,
2013-07-01 12:03:00,72.2,58.5,29.89,NNW,336,4.0,15.0,62,0.00,,CLR,0.01,VWS V14.01,2013-07-01 17:03:00,
2013-07-01 12:06:00,72.2,56.6,29.89,WNW,293,0.0,15.0,58,0.00,,CLR,0.01,VWS V14.01,2013-07-01 17:06:00,
2013-07-01 12:07:00,72.0,56.0,29.89,NNW,343,6.0,15.0,57,0.00,,CLR,0.01,VWS V14.01,2013-07-01 17:07:00,
2013-07-01 12:08:00,72.0,56.0,29.89,NW,318,3.0,15.0,57,0.00,,CLR,0.01,VWS V14.01,2013-07-01 17:08:00,
2013-07-01 12:11:00,71.9,56.3,29.89,North,355,0.0,15.0,58,0.00,,CLR,0.01,VWS V14.01,2013-07-01 17:11:00,
2013-07-01 12:12:00,71.9,56.3,29.89,NNW,336,1.0,15.0,58,0.00,,CLR,0.01,VWS V14.01,2013-07-01 17:12:00,
2013-07-01 12:13:00,72.0,56.9,29.89,North,350,10.0,15.0,59,0.00,,CLR,0.01,VWS V14.01,2013-07-01 17:13:00,
2013-07-01 12:16:00,71.9,55.4,29.89,NNW,334,5.0,15.0,56,0.00,,CLR,0.01,VWS V14.01,2013-07-01 17:16:00,
2013-07-01 12:17:00,71.9,54.9,29.89,NNW,338,0.0,15.0,55,0.00,,CLR,0.01,VWS V14.01,2013-07-01 17:17:00,
2013-07-01 12:18:00,71.9,54.9,29.89,NNW,333,0.0,15.0,55,0.00,,CLR,0.01,VWS V14.01,2013-07-01 17:18:00,
2013-07-01 12:21:00,72.0,55.0,29.89,NW,321,3.0,15.0,55,0.00,,CLR,0.01,VWS V14.01,2013-07-01 17:21:00,
2013-07-01 12:22:00,72.0,54.5,29.89,North,350,6.0,15.0,54,0.00,,CLR,0.01,VWS V14.01,2013-07-01 17:22:00,
2013-07-01 12:23:00,72.0,55.0,29.89,NW,306,2.0,15.0,55,0.00,,CLR,0.01,VWS V14.01,2013-07-01 17:23:00,
2013-07-01 12:26:00,72.2,56.1,29.89,NW,316,0.0,15.0,57,0.00,,CLR,0.01,VWS V14.01,2013-07-01 17:26:00,
2013-07-01 12:27:00,72.2,55.7,29.89,NNW,339,7.0,15.0,56,0.00,,CLR,0.01,VWS V14.01,2013-07-01 17:27:00,
2013-07-01 12:28:00,72.2,55.7,29.89,North,355,0.0,15.0,56,0.00,,CLR,0.01,VWS V14.01,2013-07-01 17:28:00,
2013-07-01 12:30:00,72.4,56.8,29.88,NNW,336,0.0,15.0,58,0.00,,,0.01,VWS V14.01,2013-07-01 17:30:00,
2013-07-01 12:31:00,72.6,56.5,29.88,NNE,15,5.0,9.0,57,0.00,,CLR,0.01,VWS V14.01,2013-07-01 17:31:00,
2013-07-01 12:33:00,72.6,56.5,29.88,NW,322,0.0,9.0,57,0.00,,CLR,0.01,VWS V14.01,2013-07-01 17:33:00,
2013-07-01 12:36:00,72.7,56.6,29.88,NW,317,6.0,9.0,57,0.00,,CLR,0.01,VWS V14.01,2013-07-01 17:36:00,
2013-07-01 12:38:00,72.7,56.1,29.88,NW,306,0.0,10.0,56,0.00,,CLR,0.01,VWS V14.01,2013-07-01 17:38:00,
2013-07-01 12:41:00,73.1,57.5,29.88,WNW,299,0.0,10.0,58,0.00,,CLR,0.01,VWS V14.01,2013-07-01 17:41:00,
2013-07-01 12:43:00,73.2,57.5,29.88,North,5,4.0,10.0,58,0.00,,CLR,0.01,VWS V14.01,2013-07-01 17:43:00,
2013-07-01 12:44:00,73.2,57.1,29.88,WNW,299,0.0,10.0,57,0.00,,CLR,0.01,VWS V14.01,2013-07-01 17:44:00,
2013-07-01 12:46:00,73.6,57.9,29.88,North,360,0.0,10.0,58,0.00,,SCT055,0.01,VWS V14.01,2013-07-01 17:46:00,
2013-07-01 12:48:00,73.6,57.9,29.88,NNW,348,1.0,10.0,58,0.00,,SCT055,0.01,VWS V14.01,2013-07-01 17:48:00,
2013-07-01 12:49:00,73.6,57.4,29.88,NW,320,1.0,10.0,57,0.00,,SCT055,0.01,VWS V14.01,2013-07-01 17:49:00,
2013-07-01 12:52:00,73.8,57.6,29.88,ENE,68,4.0,10.0,57,0.00,,SCT055,0.01,VWS V14.01,2013-07-01 17:52:00,
2013-07-01 12:53:00,73.8,57.1,29.88,NW,315,0.0,10.0,56,0.00,,SCT055,0.01,VWS V14.01,2013-07-01 17:53:00,
2013-07-01 12:54:00,73.8,57.1,29.88,NW,316,0.0,10.0,56,0.00,,SCT055,0.01,VWS V14.01,2013-07-01 17:54:00,
2013-07-01 12:57:00,73.8,58.6,29.88,NNW,338,0.0,10.0,59,0.00,,SCT055,0.01,VWS V14.01,2013-07-01 17:57:00,
2013-07-01 12:59:00,73.9,58.2,29.88,NNE,31,6.0,11.0,58,0.00,,SCT055,0.01,VWS V14.01,2013-07-01 17:59:00,
2013-07-01 13:00:00,73.9,57.7,29.87,NW,307,0.0,11.0,57,0.00,,,0.01,VWS V14.01,2013-07-01 18:00:00,
2013-07-01 13:02:00,73.9,58.2,29.87,NNW,331,0.0,5.0,58,0.00,,SCT055,0.01,VWS V14.01,2013-07-01 18:02:00,
2013-07-01 13:04:00,73.9,57.2,29.87,North,9,7.0,7.0,56,0.00,,SCT055,0.01,VWS V14.01,2013-07-01 18:04:00,
2013-07-01 13:05:00,73.9,57.7,29.87,NE,42,11.0,16.0,57,0.00,,SCT055,0.01,VWS V14.01,2013-07-01 18:05:00,
2013-07-01 13:07:00,73.9,57.7,29.87,North,360,0.0,16.0,57,0.00,,SCT055,0.01,VWS V14.01,2013-07-01 18:07:00,
2013-07-01 13:09:00,73.9,57.7,29.87,North,350,0.0,16.0,57,0.00,,SCT055,0.01,VWS V14.01,2013-07-01 18:09:00,
2013-07-01 13:10:00,73.8,57.1,29.87,NNW,338,3.0,16.0,56,0.00,,SCT055,0.01,VWS V14.01,2013-07-01 18:10:00,
2013-07-01 13:12:00,73.8,57.1,29.87,WNW,297,1.0,16.0,56,0.00,,SCT055,0.01,VWS V14.01,2013-07-01 18:12:00,
2013-07-01 13:14:00,73.9,57.7,29.87,North,10,3.0,16.0,57,0.00,,SCT055,0.01,VWS V14.01,2013-07-01 18:14:00,
2013-07-01 13:15:00,73.9,57.7,29.87,NNE,32,0.0,16.0,57,0.00,,SCT055,0.01,VWS V14.01,2013-07-01 18:15:00,
2013-07-01 13:17:00,73.9,57.7,29.87,NNE,19,1.0,16.0,57,0.00,,SCT055,0.01,VWS V14.01,2013-07-01 18:17:00,
2013-07-01 13:19:00,73.9,57.7,29.87,WNW,292,0.0,16.0,57,0.00,,SCT055,0.01,VWS V14.01,2013-07-01 18:19:00,
2013-07-01 13:20:00,73.9,57.7,29.87,WNW,300,3.0,16.0,57,0.00,,SCT055,0.01,VWS V14.01,2013-07-01 18:20:00,
2013-07-01 13:22:00,74.1,57.9,29.87,NNW,341,0.0,16.0,57,0.00,,SCT055,0.01,VWS V14.01,2013-07-01 18:22:00,
2013-07-01 13:24:00,74.3,58.1,29.87,NNW,342,2.0,16.0,57,0.00,,SCT055,0.01,VWS V14.01,2013-07-01 18:24:00,
2013-07-01 13:25:00,74.3,58.1,29.87,NE,40,7.0,16.0,57,0.00,,SCT055,0.01,VWS V14.01,2013-07-01 18:25:00,
2013-07-01 13:28:00,74.5,58.8,29.87,NNW,333,5.0,16.0,58,0.00,,SCT055,0.01,VWS V14.01,2013-07-01 18:28:00,
2013-07-01 13:29:00,74.6,58.9,29.87,NNE,30,11.0,17.0,58,0.00,,SCT055,0.01,VWS V14.01,2013-07-01 18:29:00,
2013-07-01 13:30:00,74.6,58.9,29.86,North,355,4.0,17.0,58,0.00,,SCT055,0.01,VWS V14.01,2013-07-01 18:30:00,
2013-07-01 13:33:00,74.8,59.0,29.86,NW,319,0.0,16.0,58,0.00,,SCT055,0.01,VWS V14.01,2013-07-01 18:33:00,
2013-07-01 13:34:00,74.8,59.0,29.86,NNW,342,9.0,16.0,58,0.00,,SCT055,0.01,VWS V14.01,2013-07-01 18:34:00,
2013-07-01 13:35:00,74.8,59.0,29.86,NNW,348,11.0,16.0,58,0.00,,SCT055,0.01,VWS V14.01,2013-07-01 18:35:00,
2013-07-01 13:38:00,74.8,59.0,29.86,North,5,0.0,16.0,58,0.00,,SCT055,0.01,VWS V14.01,2013-07-01 18:38:00,
2013-07-01 13:40:00,74.8,59.0,29.86,North,5,10.0,16.0,58,0.00,,SCT055,0.01,VWS V14.01,2013-07-01 18:40:00,
2013-07-01 13:41:00,74.8,58.6,29.86,NNW,342,6.0,16.0,57,0.00,,SCT055,0.01,VWS V14.01,2013-07-01 18:41:00,
2013-07-01 13:43:00,74.8,59.0,29.86,NNE,15,10.0,16.0,58,0.00,,SCT055,0.01,VWS V14.01,2013-07-01 18:43:00,
2013-07-01 13:45:00,74.8,59.0,29.86,NNW,342,8.0,16.0,58,0.00,,BKN055,0.01,VWS V14.01,2013-07-01 18:45:00,
2013-07-01 13:46:00,74.8,58.6,29.86,NNE,22,3.0,16.0,57,0.00,,BKN055,0.01,VWS V14.01,2013-07-01 18:46:00,
2013-07-01 13:48:00,74.8,59.0,29.86,East,79,5.0,16.0,58,0.00,,BKN055,0.01,VWS V14.01,2013-07-01 18:48:00,
2013-07-01 13:50:00,74.8,59.0,29.86,North,5,7.0,16.0,58,0.00,,BKN055,0.01,VWS V14.01,2013-07-01 18:50:00,
2013-07-01 13:51:00,74.6,59.3,29.86,North,5,12.0,16.0,59,0.00,,BKN055,0.01,VWS V14.01,2013-07-01 18:51:00,
2013-07-01 13:53:00,74.8,59.5,29.86,North,5,3.0,16.0,59,0.00,,BKN055,0.01,VWS V14.01,2013-07-01 18:53:00,
2013-07-01 13:55:00,74.8,60.0,29.86,NNE,20,6.0,16.0,60,0.00,,BKN055,0.01,VWS V14.01,2013-07-01 18:55:00,
2013-07-01 13:56:00,74.8,59.5,29.86,NNW,342,3.0,16.0,59,0.00,,BKN055,0.01,VWS V14.01,2013-07-01 18:56:00,
2013-07-01 13:59:00,75.0,59.7,29.86,NW,308,3.0,16.0,59,0.00,,BKN055,0.01,VWS V14.01,2013-07-01 18:59:00,
2013-07-01 14:00:00,74.8,60.0,29.87,NNE,32,1.0,16.0,60,0.00,,BKN055,0.01,VWS V14.01,2013-07-01 19:00:00,
2013-07-01 14:01:00,74.8,59.5,29.87,NNE,24,4.0,8.0,59,0.00,,BKN055,0.01,VWS V14.01,2013-07-01 19:01:00,
2013-07-01 14:03:00,74.8,59.5,29.87,North,5,5.0,13.0,59,0.00,,OVC049,0.01,VWS V14.01,2013-07-01 19:03:00,
2013-07-01 14:05:00,74.8,59.5,29.87,NNE,33,9.0,13.0,59,0.00,,OVC049,0.01,VWS V14.01,2013-07-01 19:05:00,
2013-07-01 14:06:00,74.8,59.5,29.87,North,355,16.0,16.0,59,0.00,,OVC049,0.01,VWS V14.01,2013-07-01 19:06:00,
2013-07-01 14:09:00,74.8,60.0,29.87,NNW,338,6.0,16.0,60,0.00,,OVC049,0.01,VWS V14.01,2013-07-01 19:09:00,
2013-07-01 14:10:00,74.6,59.3,29.87,NNE,15,4.0,16.0,59,0.00,,OVC049,0.01,VWS V14.01,2013-07-01 19:10:00,
2013-07-01 14:11:00,74.6,59.3,29.87,ESE,105,10.0,16.0,59,0.00,,OVC049,0.01,VWS V14.01,2013-07-01 19:11:00,
2013-07-01 14:12:00,74.6,60.3,29.87,NNW,339,0.0,16.0,61,0.00,,OVC049,0.01,VWS V14.01,2013-07-01 19:12:00,
2013-07-01 14:15:00,74.5,60.2,29.87,North,360,1.0,16.0,61,0.00,,OVC049,0.01,VWS V14.01,2013-07-01 19:15:00,
2013-07-01 14:16:00,74.5,60.2,29.87,NNE,23,6.0,16.0,61,0.00,,OVC049,0.01,VWS V14.01,2013-07-01 19:16:00,
2013-07-01 14:17:00,74.5,60.2,29.87,North,360,10.0,16.0,61,0.00,,OVC049,0.01,VWS V14.01,2013-07-01 19:17:00,
2013-07-01 14:20:00,74.3,60.0,29.87,North,355,11.0,16.0,61,0.00,,OVC049,0.01,VWS V14.01,2013-07-01 19:20:00,
2013-07-01 14:21:00,74.3,60.0,29.87,NNE,24,3.0,16.0,61,0.00,,OVC049,0.01,VWS V14.01,2013-07-01 19:21:00,
2013-07-01 14:22:00,74.3,60.0,29.87,NNE,31,11.0,16.0,61,0.00,,OVC049,0.01,VWS V14.01,2013-07-01 19:22:00,
2013-07-01 14:23:00,74.1,59.3,29.87,NNE,32,4.0,16.0,60,0.00,,OVC049,0.01,VWS V14.01,2013-07-01 19:23:00,
2013-07-01 14:26:00,73.9,60.1,29.87,NE,35,7.0,16.0,62,0.00,,OVC049,0.01,VWS V14.01,2013-07-01 19:26:00,
2013-07-01 14:27:00,73.9,59.6,29.87,NE,37,1.0,16.0,61,0.00,,OVC049,0.01,VWS V14.01,2013-07-01 19:27:00,
2013-07-01 14:28:00,73.9,59.6,29.87,NNE,26,5.0,16.0,61,0.00,,OVC049,0.01,VWS V14.01,2013-07-01 19:28:00,
2013-07-01 14:30:00,73.8,59.5,29.88,NNE,13,5.0,16.0,61,0.00,,,0.01,VWS V14.01,2013-07-01 19:30:00,
2013-07-01 14:31:00,73.8,59.5,29.88,NNW,340,3.0,5.0,61,0.00,,OVC049,0.01,VWS V14.01,2013-07-01 19:31:00,
2013-07-01 14:32:00,73.8,60.0,29.88,NNE,26,3.0,5.0,62,0.00,,OVC049,0.01,VWS V14.01,2013-07-01 19:32:00,
2013-07-01 14:33:00,73.8,60.0,29.88,North,9,0.0,5.0,62,0.00,,OVC049,0.01,VWS V14.01,2013-07-01 19:33:00,
2013-07-01 14:36:00,73.8,59.1,29.88,NE,34,3.0,10.0,60,0.00,,OVC049,0.01,VWS V14.01,2013-07-01 19:36:00,
2013-07-01 14:37:00,73.8,59.5,29.88,ENE,66,0.0,10.0,61,0.00,,OVC049,0.01,VWS V14.01,2013-07-01 19:37:00,
2013-07-01 14:38:00,73.8,59.5,29.88,NNE,17,0.0,10.0,61,0.00,,OVC049,0.01,VWS V14.01,2013-07-01 19:38:00,
2013-07-01 14:41:00,73.6,59.3,29.88,NW,325,0.0,11.0,61,0.00,,OVC049,0.01,VWS V14.01,2013-07-01 19:41:00,
2013-07-01 14:42:00,73.6,59.3,29.88,NNE,19,0.0,11.0,61,0.00,,OVC049,0.01,VWS V14.01,2013-07-01 19:42:00,
2013-07-01 14:43:00,73.6,59.8,29.88,NNW,344,0.0,11.0,62,0.00,,OVC049,0.01,VWS V14.01,2013-07-01 19:43:00,
2013-07-01 14:46:00,73.4,59.2,29.88,NE,38,4.0,11.0,61,0.00,,BKN060,0.01,VWS V14.01,2013-07-01 19:46:00,
2013-07-01 14:47:00,73.4,59.2,29.88,NNE,13,0.0,11.0,61,0.00,,BKN060,0.01,VWS V14.01,2013-07-01 19:47:00,
2013-07-01 14:48:00,73.4,59.2,29.88,NE,44,0.0,11.0,61,0.00,,BKN060,0.01,VWS V14.01,2013-07-01 19:48:00,
2013-07-01 14:51:00,73.4,59.6,29.88,North,5,0.0,11.0,62,0.00,,BKN060,0.01,VWS V14.01,2013-07-01 19:51:00,
2013-07-01 14:52:00,73.4,59.6,29.88,North,9,1.0,11.0,62,0.00,,BKN060,0.01,VWS V14.01,2013-07-01 19:52:00,
2013-07-01 14:53:00,73.4,59.6,29.88,North,355,0.0,11.0,62,0.00,,BKN060,0.01,VWS V14.01,2013-07-01 19:53:00,
2013-07-01 14:56:00,73.4,59.2,29.88,North,5,3.0,11.0,61,0.00,,BKN060,0.01,VWS V14.01,2013-07-01 19:56:00,
2013-07-01 14:57:00,73.4,59.2,29.88,North,5,0.0,11.0,61,0.00,,BKN060,0.01,VWS V14.01,2013-07-01 19:57:00,
2013-07-01 14:58:00,73.4,59.6,29.88,NNE,13,0.0,11.0,62,0.00,,BKN060,0.01,VWS V14.01,2013-07-01 19:58:00,
2013-07-01 15:00:00,73.4,59.6,29.88,NW,308,3.0,11.0,62,0.00,,,0.01,VWS V14.01,2013-07-01 20:00:00,
2013-07-01 15:01:00,73.4,60.0,29.88,NNW,343,0.0,3.0,63,0.00,,BKN075,0.01,VWS V14.01,2013-07-01 20:01:00,
2013-07-01 15:02:00,73.4,60.0,29.88,NW,325,5.0,10.0,63,0.00,,BKN075,0.01,VWS V14.01,2013-07-01 20:02:00,
2013-07-01 15:03:00,73.4,59.6,29.88,NNE,13,4.0,11.0,62,0.00,,BKN075,0.01,VWS V14.01,2013-07-01 20:03:00,
2013-07-01 15:07:00,73.4,59.6,29.88,North,355,0.0,11.0,62,0.00,,BKN075,0.01,VWS V14.01,2013-07-01 20:07:00,
2013-07-01 15:08:00,73.4,59.6,29.88,North,350,3.0,11.0,62,0.00,,BKN075,0.01,VWS V14.01,2013-07-01 20:08:00,
2013-07-01 15:10:00,73.6,59.8,29.88,North,355,0.0,11.0,62,0.00,,BKN075,0.01,VWS V14.01,2013-07-01 20:10:00,
2013-07-01 15:12:00,73.6,59.8,29.88,NNW,337,0.0,11.0,62,0.00,,BKN075,0.01,VWS V14.01,2013-07-01 20:12:00,
2013-07-01 15:13:00,73.6,59.8,29.88,NNW,331,0.0,11.0,62,0.00,,BKN075,0.01,VWS V14.01,2013-07-01 20:13:00,
2013-07-01 15:15:00,73.6,59.8,29.87,NNE,19,0.0,11.0,62,0.00,,BKN060,0.01,VWS V14.01,2013-07-01 20:15:00,
2013-07-01 15:17:00,73.6,59.8,29.87,NNW,331,0.0,11.0,62,0.00,,BKN060,0.01,VWS V14.01,2013-07-01 20:17:00,
2013-07-01 15:18:00,73.8,60.4,29.87,NW,320,0.0,11.0,63,0.00,,BKN060,0.01,VWS V14.01,2013-07-01 20:18:00,
2013-07-01 15:19:00,73.8,60.0,29.87,North,11,4.0,11.0,62,0.00,,BKN060,0.01,VWS V14.01,2013-07-01 20:19:00,
2013-07-01 15:20:00,73.8,60.0,29.87,NW,309,0.0,11.0,62,0.00,,BKN060,0.01,VWS V14.01,2013-07-01 20:20:00,
2013-07-01 15:22:00,73.8,60.0,29.87,NNW,336,0.0,11.0,62,0.00,,BKN060,0.01,VWS V14.01,2013-07-01 20:22:00,
2013-07-01 15:23:00,73.8,60.0,29.87,NE,38,4.0,11.0,62,0.00,,BKN060,0.01,VWS V14.01,2013-07-01 20:23:00,
2013-07-01 15:24:00,73.8,59.5,29.87,NNW,348,0.0,11.0,61,0.00,,BKN060,0.01,VWS V14.01,2013-07-01 20:24:00,
2013-07-01 15:25:00,73.8,60.0,29.87,ENE,61,0.0,11.0,62,0.00,,BKN060,0.01,VWS V14.01,2013-07-01 20:25:00,
2013-07-01 15:27:00,73.9,60.1,29.87,NNW,331,0.0,11.0,62,0.00,,BKN060,0.01,VWS V14.01,2013-07-01 20:27:00,
2013-07-01 15:28:00,73.9,59.6,29.87,NNE,17,0.0,11.0,61,0.00,,BKN060,0.01,VWS V14.01,2013-07-01 20:28:00,
2013-07-01 15:29:00,73.9,59.6,29.87,North,355,0.0,11.0,61,0.00,,BKN060,0.01,VWS V14.01,2013-07-01 20:29:00,
2013-07-01 15:30:00,74.1,60.3,29.87,WNW,294,4.0,11.0,62,0.00,,BKN060,0.01,VWS V14.01,2013-07-01 20:30:00,
2013-07-01 15:32:00,74.1,60.3,29.87,NNW,329,0.0,6.0,62,0.00,,BKN060,0.01,VWS V14.01,2013-07-01 20:32:00,
2013-07-01 15:33:00,74.1,60.3,29.87,NNW,329,0.0,6.0,62,0.00,,BKN060,0.01,VWS V14.01,2013-07-01 20:33:00,
2013-07-01 15:34:00,74.1,60.3,29.87,North,360,3.0,6.0,62,0.00,,BKN060,0.01,VWS V14.01,2013-07-01 20:34:00,
2013-07-01 15:35:00,74.1,59.8,29.87,NE,36,2.0,10.0,61,0.00,,BKN060,0.01,VWS V14.01,2013-07-01 20:35:00,
2013-07-01 15:37:00,74.3,60.0,29.87,North,5,3.0,10.0,61,0.00,,BKN060,0.01,VWS V14.01,2013-07-01 20:37:00,
2013-07-01 15:38:00,74.1,59.8,29.87,NNE,28,10.0,10.0,61,0.00,,BKN060,0.01,VWS V14.01,2013-07-01 20:38:00,
2013-07-01 15:39:00,74.1,59.8,29.87,NNW,327,0.0,10.0,61,0.00,,BKN060,0.01,VWS V14.01,2013-07-01 20:39:00,
2013-07-01 15:40:00,74.1,60.3,29.87,NNW,342,4.0,10.0,62,0.00,,BKN060,0.01,VWS V14.01,2013-07-01 20:40:00,
2013-07-01 15:43:00,74.1,59.8,29.87,NNW,345,0.0,10.0,61,0.00,,BKN060,0.01,VWS V14.01,2013-07-01 20:43:00,
2013-07-01 15:44:00,74.1,60.3,29.87,NW,324,3.0,10.0,62,0.00,,BKN060,0.01,VWS V14.01,2013-07-01 20:44:00,
2013-07-01 15:45:00,74.1,60.3,29.87,NNW,341,0.0,10.0,62,0.00,,BKN060,0.01,VWS V14.01,2013-07-01 20:45:00,
2013-07-01 15:48:00,74.1,59.8,29.87,NNW,330,0.0,10.0,61,0.00,,BKN060,0.01,VWS V14.01,2013-07-01 20:48:00,
2013-07-01 15:49:00,74.1,59.8,29.87,NNE,18,1.0,10.0,61,0.00,,BKN060,0.01,VWS V14.01,2013-07-01 20:49:00,
2013-07-01 15:50:00,74.1,59.8,29.87,NNE,29,3.0,12.0,61,0.00,,BKN060,0.01,VWS V14.01,2013-07-01 20:50:00,
2013-07-01 15:53:00,74.1,59.8,29.87,North,9,7.0,12.0,61,0.00,,BKN060,0.01,VWS V14.01,2013-07-01 20:53:00,
2013-07-01 15:54:00,74.1,59.3,29.87,NNW,340,0.0,12.0,60,0.00,,BKN060,0.01,VWS V14.01,2013-07-01 20:54:00,
2013-07-01 15:55:00,74.1,59.3,29.87,North,5,0.0,12.0,60,0.00,,BKN060,0.01,VWS V14.01,2013-07-01 20:55:00,
2013-07-01 15:58:00,74.1,59.8,29.87,NNW,342,0.0,12.0,61,0.00,,BKN060,0.01,VWS V14.01,2013-07-01 20:58:00,
2013-07-01 16:00:00,74.3,60.0,29.86,North,355,1.0,12.0,61,0.00,,BKN060,0.01,VWS V14.01,2013-07-01 21:00:00,
2013-07-01 16:03:00,74.3,60.0,29.86,NNE,28,1.0,7.0,61,0.00,,BKN060,0.01,VWS V14.01,2013-07-01 21:03:00,
2013-07-01 16:05:00,74.3,60.0,29.86,North,350,0.0,7.0,61,0.00,,BKN060,0.01,VWS V14.01,2013-07-01 21:05:00,
2013-07-01 16:08:00,74.3,60.0,29.86,ENE,68,4.0,10.0,61,0.00,,BKN060,0.01,VWS V14.01,2013-07-01 21:08:00,
2013-07-01 16:10:00,74.3,59.5,29.86,North,355,1.0,10.0,60,0.00,,BKN060,0.01,VWS V14.01,2013-07-01 21:10:00,
2013-07-01 16:11:00,74.3,60.0,29.86,NNE,18,4.0,10.0,61,0.00,,BKN060,0.01,VWS V14.01,2013-07-01 21:11:00,
2013-07-01 16:13:00,74.3,59.5,29.86,North,360,2.0,10.0,60,0.00,,BKN060,0.01,VWS V14.01,2013-07-01 21:13:00,
2013-07-01 16:14:00,74.5,59.7,29.86,North,360,0.0,10.0,60,0.00,,BKN060,0.01,VWS V14.01,2013-07-01 21:14:00,
2013-07-01 16:15:00,74.5,60.2,29.86,NNW,347,0.0,10.0,61,0.00,,BKN075,0.01,VWS V14.01,2013-07-01 21:15:00,
2013-07-01 16:16:00,74.5,60.2,29.86,NNW,327,2.0,10.0,61,0.00,,BKN075,0.01,VWS V14.01,2013-07-01 21:16:00,
2013-07-01 16:19:00,74.5,60.2,29.86,NW,317,0.0,10.0,61,0.00,,BKN075,0.01,VWS V14.01,2013-07-01 21:19:00,
2013-07-01 16:20:00,74.5,60.2,29.86,NNE,12,7.0,10.0,61,0.00,,BKN075,0.01,VWS V14.01,2013-07-01 21:20:00,
2013-07-01 16:21:00,74.5,60.2,29.86,NE,38,4.0,10.0,61,0.00,,BKN075,0.01,VWS V14.01,2013-07-01 21:21:00,
2013-07-01 16:23:00,74.5,59.2,29.86,NNW,340,7.0,10.0,59,0.00,,BKN075,0.01,VWS V14.01,2013-07-01 21:23:00,
2013-07-01 16:24:00,74.5,59.2,29.86,NNE,14,6.0,10.0,59,0.00,,BKN075,0.01,VWS V14.01,2013-07-01 21:24:00,
2013-07-01 16:25:00,74.5,59.2,29.86,NNE,18,6.0,10.0,59,0.00,,BKN075,0.01,VWS V14.01,2013-07-01 21:25:00,
2013-07-01 16:26:00,74.5,59.2,29.86,North,355,7.0,10.0,59,0.00,,BKN075,0.01,VWS V14.01,2013-07-01 21:26:00,
2013-07-01 16:29:00,74.5,59.7,29.86,NE,55,0.0,10.0,60,0.00,,BKN075,0.01,VWS V14.01,2013-07-01 21:29:00,
2013-07-01 16:30:00,74.6,59.8,29.86,North,11,0.0,10.0,60,0.00,,BKN075,0.01,VWS V14.01,2013-07-01 21:30:00,
2013-07-01 16:31:00,74.6,59.8,29.86,North,11,0.0,0.0,60,0.00,,BKN075,0.01,VWS V14.01,2013-07-01 21:31:00,
2013-07-01 16:34:00,74.6,59.3,29.86,North,355,4.0,7.0,59,0.00,,BKN075,0.01,VWS V14.01,2013-07-01 21:34:00,
2013-07-01 16:35:00,74.5,58.8,29.86,North,5,4.0,8.0,58,0.00,,BKN075,0.01,VWS V14.01,2013-07-01 21:35:00,
2013-07-01 16:36:00,74.5,58.8,29.86,North,350,5.0,8.0,58,0.00,,BKN075,0.01,VWS V14.01,2013-07-01 21:36:00,
2013-07-01 16:39:00,74.6,58.9,29.86,NW,308,0.0,8.0,58,0.00,,BKN075,0.01,VWS V14.01,2013-07-01 21:39:00,
2013-07-01 16:40:00,74.6,58.9,29.86,NW,313,3.0,8.0,58,0.00,,BKN075,0.01,VWS V14.01,2013-07-01 21:40:00,
2013-07-01 16:41:00,74.6,58.9,29.86,NE,42,5.0,8.0,58,0.00,,BKN075,0.01,VWS V14.01,2013-07-01 21:41:00,
2013-07-01 16:42:00,74.6,58.4,29.86,NNE,16,4.0,8.0,57,0.00,,BKN075,0.01,VWS V14.01,2013-07-01 21:42:00,
2013-07-01 16:44:00,74.6,58.9,29.86,NNE,13,0.0,8.0,58,0.00,,BKN075,0.01,VWS V14.01,2013-07-01 21:44:00,
2013-07-01 16:46:00,74.6,58.9,29.86,NNW,337,4.0,10.0,58,0.00,,BKN095,0.01,VWS V14.01,2013-07-01 21:46:00,
2013-07-01 16:47:00,74.6,58.9,29.86,NW,326,0.0,10.0,58,0.00,,BKN095,0.01,VWS V14.01,2013-07-01 21:47:00,
2013-07-01 16:49:00,74.6,58.4,29.86,NNE,20,4.0,10.0,57,0.00,,BKN095,0.01,VWS V14.01,2013-07-01 21:49:00,
2013-07-01 16:50:00,74.6,58.4,29.86,North,355,5.0,10.0,57,0.00,,BKN095,0.01,VWS V14.01,2013-07-01 21:50:00,
2013-07-01 16:51:00,74.6,58.4,29.86,North,10,2.0,10.0,57,0.00,,BKN095,0.01,VWS V14.01,2013-07-01 21:51:00,
2013-07-01 16:52:00,74.8,58.6,29.86,NW,317,0.0,10.0,57,0.00,,BKN095,0.01,VWS V14.01,2013-07-01 21:52:00,
2013-07-01 16:54:00,74.8,58.6,29.86,NNW,329,0.0,10.0,57,0.00,,BKN095,0.01,VWS V14.01,2013-07-01 21:54:00,
2013-07-01 16:55:00,74.8,58.6,29.86,North,9,0.0,10.0,57,0.00,,BKN095,0.01,VWS V14.01,2013-07-01 21:55:00,
2013-07-01 16:56:00,74.8,58.6,29.86,North,10,0.0,10.0,57,0.00,,BKN095,0.01,VWS V14.01,2013-07-01 21:56:00,
2013-07-01 16:57:00,74.8,59.0,29.86,NE,36,3.0,10.0,58,0.00,,BKN095,0.01,VWS V14.01,2013-07-01 21:57:00,
2013-07-01 16:59:00,74.8,58.6,29.86,NW,324,0.0,10.0,57,0.00,,BKN095,0.01,VWS V14.01,2013-07-01 21:59:00,
2013-07-01 17:00:00,74.8,59.0,29.86,NW,319,0.0,10.0,58,0.00,,BKN095,0.01,VWS V14.01,2013-07-01 22:00:00,
2013-07-01 17:01:00,74.8,59.0,29.86,NNW,345,2.0,2.0,58,0.00,,BKN095,0.01,VWS V14.01,2013-07-01 22:01:00,
2013-07-01 17:02:00,74.8,59.0,29.86,NNW,336,3.0,6.0,58,0.00,,BKN095,0.01,VWS V14.01,2013-07-01 22:02:00,
2013-07-01 17:04:00,74.8,59.0,29.86,NW,319,0.0,6.0,58,0.00,,BKN095,0.01,VWS V14.01,2013-07-01 22:04:00,
2013-07-01 17:05:00,74.6,58.4,29.86,North,360,3.0,15.0,57,0.00,,BKN095,0.01,VWS V14.01,2013-07-01 22:05:00,
2013-07-01 17:06:00,74.6,57.9,29.86,NNE,15,3.0,15.0,56,0.00,,BKN095,0.01,VWS V14.01,2013-07-01 22:06:00,
2013-07-01 17:07:00,74.6,58.4,29.86,North,360,0.0,15.0,57,0.00,,BKN095,0.01,VWS V14.01,2013-07-01 22:07:00,
2013-07-01 17:10:00,74.6,58.4,29.86,North,5,3.0,15.0,57,0.00,,BKN095,0.01,VWS V14.01,2013-07-01 22:10:00,
2013-07-01 17:12:00,74.5,58.3,29.86,North,9,4.0,15.0,57,0.00,,BKN095,0.01,VWS V14.01,2013-07-01 22:12:00,
2013-07-01 17:13:00,74.5,58.3,29.86,NW,310,0.0,15.0,57,0.00,,BKN095,0.01,VWS V14.01,2013-07-01 22:13:00,
2013-07-01 17:15:00,74.5,58.3,29.86,NNW,330,4.0,15.0,57,0.00,,BKN095,0.01,VWS V14.01,2013-07-01 22:15:00,
2013-07-01 17:16:00,74.5,58.3,29.86,NW,324,0.0,15.0,57,0.00,,BKN095,0.01,VWS V14.01,2013-07-01 22:16:00,
2013-07-01 17:17:00,74.3,58.6,29.86,North,5,2.0,15.0,58,0.00,,BKN095,0.01,VWS V14.01,2013-07-01 22:17:00,
2013-07-01 17:18:00,74.3,57.6,29.86,NNW,333,5.0,15.0,56,0.00,,BKN095,0.01,VWS V14.01,2013-07-01 22:18:00,
2013-07-01 17:20:00,74.3,58.1,29.86,NNE,24,2.0,15.0,57,0.00,,BKN095,0.01,VWS V14.01,2013-07-01 22:20:00,
2013-07-01 17:21:00,74.3,57.6,29.86,WNW,302,4.0,15.0,56,0.00,,BKN095,0.01,VWS V14.01,2013-07-01 22:21:00,
2013-07-01 17:22:00,74.3,58.1,29.86,NNW,342,4.0,15.0,57,0.00,,BKN095,0.01,VWS V14.01,2013-07-01 22:22:00,
2013-07-01 17:23:00,74.1,56.9,29.86,North,349,6.0,15.0,55,0.00,,BKN095,0.01,VWS V14.01,2013-07-01 22:23:00,
2013-07-01 17:25:00,74.1,56.9,29.86,NW,326,10.0,15.0,55,0.00,,BKN095,0.01,VWS V14.01,2013-07-01 22:25:00,
2013-07-01 17:26:00,74.1,56.9,29.86,NNE,33,13.0,15.0,55,0.00,,BKN095,0.01,VWS V14.01,2013-07-01 22:26:00,
2013-07-01 17:27:00,74.1,56.9,29.86,North,360,0.0,15.0,55,0.00,,BKN095,0.01,VWS V14.01,2013-07-01 22:27:00,
2013-07-01 17:29:00,74.1,57.4,29.86,North,360,6.0,15.0,56,0.00,,BKN095,0.01,VWS V14.01,2013-07-01 22:29:00,
2013-07-01 17:30:00,74.1,56.9,29.86,WNW,293,1.0,15.0,55,0.00,,,0.01,VWS V14.01,2013-07-01 22:30:00,
2013-07-01 17:31:00,74.1,57.4,29.86,NW,319,5.0,7.0,56,0.00,,BKN095,0.01,VWS V14.01,2013-07-01 22:31:00,
2013-07-01 17:32:00,74.1,56.9,29.86,North,5,4.0,7.0,55,0.00,,BKN095,0.01,VWS V14.01,2013-07-01 22:32:00,
2013-07-01 17:33:00,74.1,56.9,29.86,North,360,0.0,7.0,55,0.00,,BKN095,0.01,VWS V14.01,2013-07-01 22:33:00,
2013-07-01 17:34:00,74.1,56.9,29.86,NNE,15,13.0,13.0,55,0.00,,BKN095,0.01,VWS V14.01,2013-07-01 22:34:00,
2013-07-01 17:36:00,74.1,56.9,29.86,NW,306,4.0,13.0,55,0.00,,BKN095,0.01,VWS V14.01,2013-07-01 22:36:00,
2013-07-01 17:37:00,73.9,56.7,29.86,North,11,5.0,13.0,55,0.00,,BKN095,0.01,VWS V14.01,2013-07-01 22:37:00,
2013-07-01 17:38:00,73.9,56.7,29.86,NNW,336,5.0,13.0,55,0.00,,BKN095,0.01,VWS V14.01,2013-07-01 22:38:00,
2013-07-01 17:39:00,73.9,56.7,29.86,NNW,336,1.0,13.0,55,0.00,,BKN095,0.01,VWS V14.01,2013-07-01 22:39:00,
2013-07-01 17:41:00,73.9,57.2,29.86,NNE,15,0.0,13.0,56,0.00,,BKN095,0.01,VWS V14.01,2013-07-01 22:41:00,
2013-07-01 17:42:00,73.9,56.2,29.86,NNE,31,2.0,13.0,54,0.00,,BKN095,0.01,VWS V14.01,2013-07-01 22:42:00,
2013-07-01 17:43:00,73.9,56.7,29.86,NNE,19,0.0,13.0,55,0.00,,BKN095,0.01,VWS V14.01,2013-07-01 22:43:00,
2013-07-01 17:44:00,73.9,56.2,29.86,NNE,13,0.0,13.0,54,0.00,,BKN095,0.01,VWS V14.01,2013-07-01 22:44:00,
2013-07-01 17:46:00,73.9,56.7,29.86,NNW,347,4.0,13.0,55,0.00,,SCT120,0.01,VWS V14.01,2013-07-01 22:46:00,
2013-07-01 17:47:00,73.9,56.2,29.86,NNW,347,3.0,13.0,54,0.00,,SCT120,0.01,VWS V14.01,2013-07-01 22:47:00,
2013-07-01 17:48:00,73.9,56.2,29.86,NNW,345,0.0,13.0,54,0.00,,SCT120,0.01,VWS V14.01,2013-07-01 22:48:00,
2013-07-01 17:49:00,73.9,56.2,29.86,North,5,0.0,13.0,54,0.00,,SCT120,0.01,VWS V14.01,2013-07-01 22:49:00,
2013-07-01 17:51:00,73.9,56.2,29.86,North,5,4.0,13.0,54,0.00,,SCT120,0.01,VWS V14.01,2013-07-01 22:51:00,
2013-07-01 17:52:00,73.9,56.2,29.86,NNE,18,9.0,13.0,54,0.00,,SCT120,0.01,VWS V14.01,2013-07-01 22:52:00,
2013-07-01 17:53:00,73.9,56.2,29.86,NW,317,5.0,13.0,54,0.00,,SCT120,0.01,VWS V14.01,2013-07-01 22:53:00,
2013-07-01 17:54:00,73.9,56.2,29.86,NW,313,1.0,13.0,54,0.00,,SCT120,0.01,VWS V14.01,2013-07-01 22:54:00,
2013-07-01 17:56:00,73.9,56.2,29.86,North,355,3.0,13.0,54,0.00,,SCT120,0.01,VWS V14.01,2013-07-01 22:56:00,
2013-07-01 17:57:00,73.9,56.2,29.86,NNW,332,0.0,13.0,54,0.00,,SCT120,0.01,VWS V14.01,2013-07-01 22:57:00,
2013-07-01 17:58:00,73.9,56.7,29.86,NNW,333,4.0,13.0,55,0.00,,SCT120,0.01,VWS V14.01,2013-07-01 22:58:00,
2013-07-01 17:59:00,73.8,56.1,29.86,NW,325,5.0,13.0,54,0.00,,SCT120,0.01,VWS V14.01,2013-07-01 22:59:00,
2013-07-01 18:00:00,73.8,56.6,29.86,NNW,330,0.0,13.0,55,0.00,,,0.01,VWS V14.01,2013-07-01 23:00:00,
2013-07-01 18:01:00,73.8,56.6,29.86,NNW,340,4.0,5.0,55,0.00,,SCT120,0.01,VWS V14.01,2013-07-01 23:01:00,
2013-07-01 18:02:00,73.8,56.6,29.86,North,350,0.0,6.0,55,0.00,,SCT080,0.01,VWS V14.01,2013-07-01 23:02:00,
2013-07-01 18:03:00,73.8,56.1,29.86,North,9,3.0,6.0,54,0.00,,SCT080,0.01,VWS V14.01,2013-07-01 23:03:00,
2013-07-01 18:04:00,73.8,54.6,29.86,North,355,0.0,6.0,51,0.00,,SCT080,0.01,VWS V14.01,2013-07-01 23:04:00,
2013-07-01 18:06:00,73.8,56.6,29.86,North,360,3.0,6.0,55,0.00,,SCT080,0.01,VWS V14.01,2013-07-01 23:06:00,
2013-07-01 18:07:00,73.8,56.6,29.86,NNW,339,2.0,6.0,55,0.00,,SCT080,0.01,VWS V14.01,2013-07-01 23:07:00,
2013-07-01 18:08:00,73.8,56.6,29.86,NNE,22,3.0,10.0,55,0.00,,SCT080,0.01,VWS V14.01,2013-07-01 23:08:00,
2013-07-01 18:10:00,73.8,57.1,29.86,NW,318,0.0,10.0,56,0.00,,SCT080,0.01,VWS V14.01,2013-07-01 23:10:00,
2013-07-01 18:12:00,73.8,57.1,29.86,North,355,1.0,10.0,56,0.00,,SCT080,0.01,VWS V14.01,2013-07-01 23:12:00,
2013-07-01 18:13:00,73.8,57.6,29.86,NW,325,0.0,10.0,57,0.00,,SCT080,0.01,VWS V14.01,2013-07-01 23:13:00,
2013-07-01 18:14:00,73.8,57.6,29.86,NW,325,0.0,10.0,57,0.00,,SCT080,0.01,VWS V14.01,2013-07-01 23:14:00,
2013-07-01 18:15:00,73.8,57.6,29.86,North,360,0.0,10.0,57,0.00,,SCT080,0.01,VWS V14.01,2013-07-01 23:15:00,
2013-07-01 18:17:00,73.6,57.4,29.86,NW,316,3.0,10.0,57,0.00,,SCT080,0.01,VWS V14.01,2013-07-01 23:17:00,
2013-07-01 18:18:00,73.8,57.6,29.86,NW,316,0.0,10.0,57,0.00,,SCT080,0.01,VWS V14.01,2013-07-01 23:18:00,
2013-07-01 18:19:00,73.6,57.4,29.86,NNE,28,4.0,10.0,57,0.00,,SCT080,0.01,VWS V14.01,2013-07-01 23:19:00,
2013-07-01 18:20:00,73.8,57.6,29.86,North,5,0.0,10.0,57,0.00,,SCT080,0.01,VWS V14.01,2013-07-01 23:20:00,
2013-07-01 18:22:00,73.8,58.1,29.86,NNW,344,0.0,10.0,58,0.00,,SCT080,0.01,VWS V14.01,2013-07-01 23:22:00,
2013-07-01 18:23:00,73.8,58.1,29.86,NNW,344,0.0,10.0,58,0.00,,SCT080,0.01,VWS V14.01,2013-07-01 23:23:00,
2013-07-01 18:24:00,73.8,58.6,29.86,NNW,336,2.0,10.0,59,0.00,,SCT080,0.01,VWS V14.01,2013-07-01 23:24:00,
2013-07-01 18:25:00,73.8,58.1,29.86,NNE,28,3.0,10.0,58,0.00,,SCT080,0.01,VWS V14.01,2013-07-01 23:25:00,
2013-07-01 18:27:00,73.6,58.4,29.86,NW,316,0.0,10.0,59,0.00,,SCT080,0.01,VWS V14.01,2013-07-01 23:27:00,
2013-07-01 18:28:00,73.6,58.4,29.86,NW,316,0.0,10.0,59,0.00,,SCT080,0.01,VWS V14.01,2013-07-01 23:28:00,
2013-07-01 18:29:00,73.6,58.4,29.86,NNW,327,0.0,10.0,59,0.00,,SCT080,0.01,VWS V14.01,2013-07-01 23:29:00,
2013-07-01 18:30:00,73.6,58.4,29.86,NW,310,0.0,10.0,59,0.00,,SCT080,0.01,VWS V14.01,2013-07-01 23:30:00,
2013-07-01 18:33:00,73.6,58.9,29.86,North,9,0.0,4.0,60,0.00,,SCT080,0.01,VWS V14.01,2013-07-01 23:33:00,
2013-07-01 18:34:00,73.6,58.9,29.86,NW,315,0.0,4.0,60,0.00,,SCT080,0.01,VWS V14.01,2013-07-01 23:34:00,
2013-07-01 18:35:00,73.6,58.9,29.86,NNW,329,0.0,4.0,60,0.00,,SCT080,0.01,VWS V14.01,2013-07-01 23:35:00,
2013-07-01 18:38:00,73.6,59.3,29.86,NNW,329,0.0,4.0,61,0.00,,SCT080,0.01,VWS V14.01,2013-07-01 23:38:00,
2013-07-01 18:39:00,73.6,59.3,29.86,NNW,329,0.0,4.0,61,0.00,,SCT080,0.01,VWS V14.01,2013-07-01 23:39:00,
2013-07-01 18:40:00,73.4,59.2,29.86,NNW,330,0.0,4.0,61,0.00,,SCT080,0.01,VWS V14.01,2013-07-01 23:40:00,
2013-07-01 18:43:00,73.4,58.7,29.86,NNW,331,3.0,10.0,60,0.00,,SCT080,0.01,VWS V14.01,2013-07-01 23:43:00,
2013-07-01 18:44:00,73.4,58.7,29.86,NNE,24,5.0,10.0,60,0.00,,SCT080,0.01,VWS V14.01,2013-07-01 23:44:00,
2013-07-01 18:45:00,73.4,58.7,29.86,NE,36,9.0,11.0,60,0.00,,SCT080,0.01,VWS V14.01,2013-07-01 23:45:00,
2013-07-01 18:48:00,73.6,58.9,29.86,NW,315,0.0,11.0,60,0.00,,CLR,0.01,VWS V14.01,2013-07-01 23:48:00,
2013-07-01 18:49:00,73.6,58.9,29.86,NNW,344,0.0,11.0,60,0.00,,CLR,0.01,VWS V14.01,2013-07-01 23:49:00,
2013-07-01 18:50:00,73.6,58.9,29.86,NNW,342,3.0,11.0,60,0.00,,CLR,0.01,VWS V14.01,2013-07-01 23:50:00,
2013-07-01 18:51:00,73.6,58.9,29.86,North,5,7.0,11.0,60,0.00,,CLR,0.01,VWS V14.01,2013-07-01 23:51:00,
2013-07-01 18:53:00,73.6,59.3,29.86,NNW,336,0.0,11.0,61,0.00,,CLR,0.01,VWS V14.01,2013-07-01 23:53:00,
2013-07-01 18:54:00,73.6,58.9,29.86,NNW,336,0.0,11.0,60,0.00,,CLR,0.01,VWS V14.01,2013-07-01 23:54:00,
2013-07-01 18:55:00,73.6,58.9,29.86,NNW,331,0.0,11.0,60,0.00,,CLR,0.01,VWS V14.01,2013-07-01 23:55:00,
2013-07-01 18:56:00,73.6,58.9,29.86,North,350,4.0,11.0,60,0.00,,CLR,0.01,VWS V14.01,2013-07-01 23:56:00,
2013-07-01 18:58:00,73.6,58.4,29.86,NNW,339,0.0,11.0,59,0.00,,CLR,0.01,VWS V14.01,2013-07-01 23:58:00,
2013-07-01 18:59:00,73.6,58.4,29.86,NW,317,2.0,11.0,59,0.00,,CLR,0.01,VWS V14.01,2013-07-01 23:59:00,
2013-07-01 19:00:00,73.6,58.4,29.86,NW,320,0.0,11.0,59,0.00,,CLR,0.01,VWS V14.01,2013-07-02 00:00:00,
2013-07-01 19:01:00,73.6,58.4,29.86,NNW,329,0.0,5.0,59,0.00,,CLR,0.01,VWS V14.01,2013-07-02 00:01:00,
2013-07-01 19:03:00,73.6,58.4,29.86,NNW,347,0.0,5.0,59,0.00,,CLR,0.01,VWS V14.01,2013-07-02 00:03:00,
2013-07-01 19:04:00,73.6,58.4,29.86,NNW,342,1.0,5.0,59,0.00,,CLR,0.01,VWS V14.01,2013-07-02 00:04:00,
2013-07-01 19:05:00,73.6,58.4,29.86,NNE,22,0.0,8.0,59,0.00,,CLR,0.01,VWS V14.01,2013-07-02 00:05:00,
2013-07-01 19:06:00,73.6,58.4,29.86,NNW,337,1.0,8.0,59,0.00,,CLR,0.01,VWS V14.01,2013-07-02 00:06:00,
2013-07-01 19:08:00,73.6,57.9,29.86,NNW,347,5.0,8.0,58,0.00,,CLR,0.01,VWS V14.01,2013-07-02 00:08:00,
2013-07-01 19:09:00,73.6,57.9,29.86,NNW,343,3.0,8.0,58,0.00,,CLR,0.01,VWS V14.01,2013-07-02 00:09:00,
2013-07-01 19:10:00,73.6,57.9,29.86,North,355,5.0,8.0,58,0.00,,CLR,0.01,VWS V14.01,2013-07-02 00:10:00,
2013-07-01 19:11:00,73.6,57.9,29.86,NNW,333,3.0,8.0,58,0.00,,CLR,0.01,VWS V14.01,2013-07-02 00:11:00,
2013-07-01 19:13:00,73.6,57.9,29.86,NNW,342,0.0,8.0,58,0.00,,CLR,0.01,VWS V14.01,2013-07-02 00:13:00,
2013-07-01 19:14:00,73.6,58.4,29.86,NNW,342,0.0,8.0,59,0.00,,CLR,0.01,VWS V14.01,2013-07-02 00:14:00,
2013-07-01 19:15:00,73.6,58.4,29.87,NNW,327,1.0,8.0,59,0.00,,CLR,0.01,VWS V14.01,2013-07-02 00:15:00,
2013-07-01 19:16:00,73.6,58.4,29.87,NNE,19,0.0,8.0,59,0.00,,CLR,0.01,VWS V14.01,2013-07-02 00:16:00,
2013-07-01 19:17:00,73.6,58.4,29.87,NNE,23,0.0,8.0,59,0.00,,CLR,0.01,VWS V14.01,2013-07-02 00:17:00,
2013-07-01 19:18:00,73.4,58.2,29.87,NNW,330,0.0,8.0,59,0.00,,CLR,0.01,VWS V14.01,2013-07-02 00:18:00,
2013-07-01 19:19:00,73.4,58.2,29.87,NW,319,0.0,8.0,59,0.00,,CLR,0.01,VWS V14.01,2013-07-02 00:19:00,
2013-07-01 19:20:00,73.4,58.2,29.87,NNE,24,0.0,8.0,59,0.00,,CLR,0.01,VWS V14.01,2013-07-02 00:20:00,
2013-07-01 19:21:00,73.4,57.7,29.87,North,5,0.0,8.0,58,0.00,,CLR,0.01,VWS V14.01,2013-07-02 00:21:00,
2013-07-01 19:22:00,73.4,57.7,29.87,NE,41,0.0,8.0,58,0.00,,CLR,0.01,VWS V14.01,2013-07-02 00:22:00,
2013-07-01 19:24:00,73.4,57.7,29.87,North,5,2.0,8.0,58,0.00,,CLR,0.01,VWS V14.01,2013-07-02 00:24:00,
2013-07-01 19:25:00,73.2,57.5,29.87,NNW,336,4.0,8.0,58,0.00,,CLR,0.01,VWS V14.01,2013-07-02 00:25:00,
2013-07-01 19:26:00,73.2,57.5,29.87,NNW,328,0.0,8.0,58,0.00,,CLR,0.01,VWS V14.01,2013-07-02 00:26:00,
2013-07-01 19:27:00,73.2,57.1,29.87,North,5,6.0,8.0,57,0.00,,CLR,0.01,VWS V14.01,2013-07-02 00:27:00,
2013-07-01 19:29:00,73.2,57.1,29.87,NNE,20,6.0,8.0,57,0.00,,CLR,0.01,VWS V14.01,2013-07-02 00:29:00,
2013-07-01 19:30:00,73.2,57.1,29.88,NNW,331,0.0,8.0,57,0.00,,CLR,0.01,VWS V14.01,2013-07-02 00:30:00,
2013-07-01 19:31:00,73.2,57.1,29.88,NNW,342,0.0,0.0,57,0.00,,CLR,0.01,VWS V14.01,2013-07-02 00:31:00,
2013-07-01 19:33:00,73.2,57.1,29.88,North,5,0.0,1.0,57,0.00,,CLR,0.01,VWS V14.01,2013-07-02 00:33:00,
2013-07-01 19:34:00,73.2,57.1,29.88,North,5,0.0,1.0,57,0.00,,CLR,0.01,VWS V14.01,2013-07-02 00:34:00,
2013-07-01 19:35:00,73.2,57.1,29.88,North,360,0.0,1.0,57,0.00,,CLR,0.01,VWS V14.01,2013-07-02 00:35:00,
2013-07-01 19:36:00,73.2,57.1,29.88,North,360,0.0,1.0,57,0.00,,CLR,0.01,VWS V14.01,2013-07-02 00:36:00,
2013-07-01 19:38:00,73.1,57.0,29.88,North,360,0.0,1.0,57,0.00,,CLR,0.01,VWS V14.01,2013-07-02 00:38:00,
2013-07-01 19:39:00,73.1,57.5,29.88,NNE,20,1.0,6.0,58,0.00,,CLR,0.01,VWS V14.01,2013-07-02 00:39:00,
2013-07-01 19:40:00,73.1,57.9,29.88,NNE,23,0.0,6.0,59,0.00,,CLR,0.01,VWS V14.01,2013-07-02 00:40:00,
2013-07-01 19:41:00,73.1,57.9,29.88,North,9,0.0,6.0,59,0.00,,CLR,0.01,VWS V14.01,2013-07-02 00:41:00,
2013-07-01 19:44:00,72.9,58.7,29.88,NE,43,0.0,6.0,61,0.00,,CLR,0.01,VWS V14.01,2013-07-02 00:44:00,
2013-07-01 19:45:00,72.9,59.1,29.88,NE,43,0.0,6.0,62,0.00,,CLR,0.01,VWS V14.01,2013-07-02 00:45:00,
2013-07-01 19:46:00,72.9,59.1,29.88,NE,43,0.0,6.0,62,0.00,,CLR,0.01,VWS V14.01,2013-07-02 00:46:00,
2013-07-01 19:49:00,72.7,59.4,29.88,NE,43,0.0,6.0,63,0.00,,CLR,0.01,VWS V14.01,2013-07-02 00:49:00,
2013-07-01 19:50:00,72.7,59.4,29.88,NE,43,0.0,6.0,63,0.00,,CLR,0.01,VWS V14.01,2013-07-02 00:50:00,
2013-07-01 19:51:00,72.7,59.4,29.88,NE,43,0.0,6.0,63,0.00,,CLR,0.01,VWS V14.01,2013-07-02 00:51:00,
2013-07-01 19:54:00,72.6,59.7,29.88,NNE,30,0.0,6.0,64,0.00,,CLR,0.01,VWS V14.01,2013-07-02 00:54:00,
2013-07-01 19:55:00,72.4,59.5,29.88,NNE,30,0.0,6.0,64,0.00,,CLR,0.01,VWS V14.01,2013-07-02 00:55:00,
2013-07-01 19:56:00,72.4,60.0,29.88,NNE,30,0.0,6.0,65,0.00,,CLR,0.01,VWS V14.01,2013-07-02 00:56:00,
2013-07-01 19:59:00,72.2,59.8,29.88,NNE,30,0.0,6.0,65,0.00,,CLR,0.01,VWS V14.01,2013-07-02 00:59:00,
2013-07-01 20:00:00,72.2,59.8,29.88,NNW,344,0.0,6.0,65,0.00,,CLR,0.01,VWS V14.01,2013-07-02 01:00:00,
2013-07-01 20:01:00,72.0,59.6,29.88,NE,43,8.0,9.0,65,0.00,,CLR,0.01,VWS V14.01,2013-07-02 01:01:00,
2013-07-01 20:04:00,71.9,59.5,29.88,North,351,0.0,9.0,65,0.00,,SCT120,0.01,VWS V14.01,2013-07-02 01:04:00,
2013-07-01 20:05:00,71.9,59.5,29.88,North,351,0.0,9.0,65,0.00,,SCT120,0.01,VWS V14.01,2013-07-02 01:05:00,
2013-07-01 20:06:00,71.9,59.5,29.88,North,355,0.0,9.0,65,0.00,,SCT120,0.01,VWS V14.01,2013-07-02 01:06:00,
2013-07-01 20:09:00,71.7,59.3,29.88,NNE,16,5.0,9.0,65,0.00,,SCT120,0.01,VWS V14.01,2013-07-02 01:09:00,
2013-07-01 20:10:00,71.7,58.9,29.88,NNE,17,6.0,9.0,64,0.00,,SCT120,0.01,VWS V14.01,2013-07-02 01:10:00,
2013-07-01 20:11:00,71.7,58.9,29.88,NE,40,3.0,9.0,64,0.00,,SCT120,0.01,VWS V14.01,2013-07-02 01:11:00,
2013-07-01 20:12:00,71.7,58.9,29.88,NNE,15,4.0,13.0,64,0.00,,SCT120,0.01,VWS V14.01,2013-07-02 01:12:00,
2013-07-01 20:14:00,71.4,59.5,29.88,NE,36,6.0,13.0,66,0.00,,SCT120,0.01,VWS V14.01,2013-07-02 01:14:00,
2013-07-01 20:15:00,71.2,59.7,29.89,ENE,78,0.0,13.0,67,0.00,,SCT120,0.01,VWS V14.01,2013-07-02 01:15:00,
2013-07-01 20:16:00,71.2,60.1,29.89,NE,36,0.0,13.0,68,0.00,,SCT120,0.01,VWS V14.01,2013-07-02 01:16:00,
2013-07-01 20:17:00,71.0,60.3,29.89,NNE,24,3.0,13.0,69,0.00,,SCT120,0.01,VWS V14.01,2013-07-02 01:17:00,
2013-07-01 20:19:00,70.3,60.1,29.89,NNW,340,0.0,13.0,70,0.00,,SCT120,0.01,VWS V14.01,2013-07-02 01:19:00,
2013-07-01 20:20:00,70.2,60.4,29.89,NNW,344,0.0,13.0,71,0.00,,SCT120,0.01,VWS V14.01,2013-07-02 01:20:00,
2013-07-01 20:21:00,70.2,60.4,29.89,NNW,344,0.0,13.0,71,0.00,,SCT120,0.01,VWS V14.01,2013-07-02 01:21:00,
2013-07-01 20:22:00,70.0,60.2,29.89,NNE,18,0.0,13.0,71,0.00,,SCT120,0.01,VWS V14.01,2013-07-02 01:22:00,
2013-07-01 20:24:00,69.7,60.3,29.89,NNW,340,0.0,13.0,72,0.00,,SCT120,0.01,VWS V14.01,2013-07-02 01:24:00,
2013-07-01 20:25:00,69.5,60.1,29.89,NW,322,0.0,13.0,72,0.00,,SCT120,0.01,VWS V14.01,2013-07-02 01:25:00,
2013-07-01 20:26:00,69.5,60.1,29.89,NNW,328,0.0,13.0,72,0.00,,SCT120,0.01,VWS V14.01,2013-07-02 01:26:00,
2013-07-01 20:27:00,69.3,60.3,29.89,NW,313,0.0,13.0,73,0.00,,SCT120,0.01,VWS V14.01,2013-07-02 01:27:00,
2013-07-01 20:29:00,69.2,59.8,29.89,NNW,340,0.0,13.0,72,0.00,,SCT120,0.01,VWS V14.01,2013-07-02 01:29:00,
2013-07-01 20:30:00,69.2,59.4,29.89,NW,307,0.0,13.0,71,0.00,,,0.01,VWS V14.01,2013-07-02 01:30:00,
2013-07-01 20:31:00,69.2,59.4,29.89,NNE,28,6.0,6.0,71,0.00,,SCT120,0.01,VWS V14.01,2013-07-02 01:31:00,
2013-07-01 20:32:00,69.2,59.0,29.89,North,350,1.0,6.0,70,0.00,,SCT120,0.01,VWS V14.01,2013-07-02 01:32:00,
2013-07-01 20:34:00,69.3,58.3,29.89,NNW,331,0.0,11.0,68,0.00,,SCT120,0.01,VWS V14.01,2013-07-02 01:34:00,
2013-07-01 20:36:00,69.5,58.5,29.89,North,9,0.0,11.0,68,0.00,,SCT120,0.01,VWS V14.01,2013-07-02 01:36:00,
2013-07-01 20:37:00,69.5,58.1,29.89,NNW,338,3.0,11.0,67,0.00,,SCT120,0.01,VWS V14.01,2013-07-02 01:37:00,
2013-07-01 20:40:00,69.8,57.5,29.89,North,360,4.0,11.0,65,0.00,,SCT120,0.01,VWS V14.01,2013-07-02 01:40:00,
2013-07-01 20:41:00,69.8,57.5,29.89,NNE,18,0.0,11.0,65,0.00,,SCT120,0.01,VWS V14.01,2013-07-02 01:41:00,
2013-07-01 20:42:00,69.8,57.5,29.89,NNW,343,0.0,11.0,65,0.00,,SCT120,0.01,VWS V14.01,2013-07-02 01:42:00,
2013-07-01 20:45:00,70.0,56.8,29.89,NW,307,0.0,11.0,63,0.00,,SCT120,0.01,VWS V14.01,2013-07-02 01:45:00,
2013-07-01 20:46:00,70.2,57.5,29.89,North,355,6.0,11.0,64,0.00,,SCT120,0.01,VWS V14.01,2013-07-02 01:46:00,
2013-07-01 20:47:00,70.2,56.6,29.89,NNW,329,1.0,11.0,62,0.00,,SCT120,0.01,VWS V14.01,2013-07-02 01:47:00,
2013-07-01 20:50:00,70.3,56.2,29.89,ESE,114,1.0,15.0,61,0.00,,SCT120,0.01,VWS V14.01,2013-07-02 01:50:00,
2013-07-01 20:51:00,70.5,56.0,29.89,North,10,6.0,15.0,60,0.00,,SCT120,0.01,VWS V14.01,2013-07-02 01:51:00,
2013-07-01 20:52:00,70.5,56.0,29.89,NW,323,0.0,15.0,60,0.00,,SCT120,0.01,VWS V14.01,2013-07-02 01:52:00,
2013-07-01 20:55:00,70.7,56.2,29.89,NNW,348,1.0,15.0,60,0.00,,SCT120,0.01,VWS V14.01,2013-07-02 01:55:00,
2013-07-01 20:56:00,70.7,56.6,29.89,NNW,338,0.0,15.0,61,0.00,,SCT120,0.01,VWS V14.01,2013-07-02 01:56:00,
2013-07-01 20:57:00,70.7,56.6,29.89,North,355,2.0,15.0,61,0.00,,SCT120,0.01,VWS V14.01,2013-07-02 01:57:00,
2013-07-01 20:58:00,70.7,56.2,29.89,NNE,12,5.0,15.0,60,0.00,,SCT120,0.01,VWS V14.01,2013-07-02 01:58:00,
2013-07-01 21:00:00,70.7,56.6,29.89,NNW,345,6.0,15.0,61,0.00,,SCT120,0.01,VWS V14.01,2013-07-02 02:00:00,
2013-07-01 21:02:00,70.7,56.2,29.89,North,11,0.0,9.0,60,0.00,,BKN120,0.01,VWS V14.01,2013-07-02 02:02:00,
2013-07-01 21:03:00,70.7,56.2,29.89,ENE,58,0.0,9.0,60,0.00,,BKN120,0.01,VWS V14.01,2013-07-02 02:03:00,
2013-07-01 21:05:00,70.7,56.2,29.89,North,355,0.0,9.0,60,0.00,,BKN120,0.01,VWS V14.01,2013-07-02 02:05:00,
2013-07-01 21:07:00,70.7,56.2,29.89,NNE,26,0.0,9.0,60,0.00,,BKN120,0.01,VWS V14.01,2013-07-02 02:07:00,
2013-07-01 21:08:00,70.7,56.2,29.89,NNE,17,2.0,9.0,60,0.00,,BKN120,0.01,VWS V14.01,2013-07-02 02:08:00,
2013-07-01 21:10:00,70.5,56.0,29.89,NNE,21,0.0,9.0,60,0.00,,BKN120,0.01,VWS V14.01,2013-07-02 02:10:00,
2013-07-01 21:12:00,70.5,56.0,29.89,NNW,336,0.0,9.0,60,0.00,,BKN120,0.01,VWS V14.01,2013-07-02 02:12:00,
2013-07-01 21:13:00,70.5,56.0,29.89,NNE,14,4.0,9.0,60,0.00,,BKN120,0.01,VWS V14.01,2013-07-02 02:13:00,
2013-07-01 21:15:00,70.5,56.0,29.90,NNW,337,0.0,9.0,60,0.00,,BKN120,0.01,VWS V14.01,2013-07-02 02:15:00,
2013-07-01 21:17:00,70.3,56.2,29.90,NNW,327,0.0,9.0,61,0.00,,BKN120,0.01,VWS V14.01,2013-07-02 02:17:00,
2013-07-01 21:18:00,70.3,56.2,29.90,NNW,327,0.0,9.0,61,0.00,,BKN120,0.01,VWS V14.01,2013-07-02 02:18:00,
2013-07-01 21:19:00,70.3,56.7,29.90,NNW,348,0.0,9.0,62,0.00,,BKN120,0.01,VWS V14.01,2013-07-02 02:19:00,
2013-07-01 21:20:00,70.3,56.7,29.90,NNE,22,2.0,9.0,62,0.00,,BKN120,0.01,VWS V14.01,2013-07-02 02:20:00,
2013-07-01 21:22:00,70.2,56.1,29.90,North,355,0.0,9.0,61,0.00,,BKN120,0.01,VWS V14.01,2013-07-02 02:22:00,
2013-07-01 21:23:00,70.2,56.6,29.90,NNW,346,0.0,9.0,62,0.00,,BKN120,0.01,VWS V14.01,2013-07-02 02:23:00,
2013-07-01 21:24:00,70.2,56.6,29.90,NNW,347,0.0,9.0,62,0.00,,BKN120,0.01,VWS V14.01,2013-07-02 02:24:00,
2013-07-01 21:25:00,70.2,56.6,29.90,NNW,344,0.0,9.0,62,0.00,,BKN120,0.01,VWS V14.01,2013-07-02 02:25:00,
2013-07-01 21:27:00,70.2,56.6,29.90,NE,36,5.0,9.0,62,0.00,,BKN120,0.01,VWS V14.01,2013-07-02 02:27:00,
2013-07-01 21:28:00,70.2,56.6,29.90,NNE,26,0.0,9.0,62,0.00,,BKN120,0.01,VWS V14.01,2013-07-02 02:28:00,
2013-07-01 21:30:00,70.2,56.6,29.90,North,360,3.0,9.0,62,0.00,,BKN120,0.01,VWS V14.01,2013-07-02 02:30:00,
2013-07-01 21:33:00,70.2,57.5,29.90,NNE,17,2.0,6.0,64,0.00,,BKN120,0.01,VWS V14.01,2013-07-02 02:33:00,
2013-07-01 21:35:00,70.0,57.3,29.90,NNW,344,0.0,14.0,64,0.00,,BKN120,0.01,VWS V14.01,2013-07-02 02:35:00,
2013-07-01 21:38:00,69.7,57.8,29.90,NNE,33,5.0,14.0,66,0.00,,BKN120,0.01,VWS V14.01,2013-07-02 02:38:00,
2013-07-01 21:39:00,69.5,58.1,29.90,NNW,331,3.0,14.0,67,0.00,,BKN120,0.01,VWS V14.01,2013-07-02 02:39:00,
2013-07-01 21:40:00,69.3,58.3,29.90,NNE,31,0.0,14.0,68,0.01,,BKN120,0.02,VWS V14.01,2013-07-02 02:40:00,
2013-07-01 21:43:00,68.7,58.9,29.90,NNE,13,0.0,14.0,71,0.01,,BKN120,0.02,VWS V14.01,2013-07-02 02:43:00,
2013-07-01 21:44:00,68.3,58.9,29.90,NW,321,0.0,14.0,72,0.01,,BKN120,0.02,VWS V14.01,2013-07-02 02:44:00,
2013-07-01 21:45:00,68.2,58.8,29.91,NW,318,0.0,14.0,72,0.01,,BKN075,0.02,VWS V14.01,2013-07-02 02:45:00,
2013-07-01 21:46:00,68.2,59.2,29.91,NW,313,0.0,14.0,73,0.01,,BKN075,0.02,VWS V14.01,2013-07-02 02:46:00,
2013-07-01 21:48:00,67.7,59.1,29.91,NW,309,1.0,14.0,74,0.01,,BKN075,0.02,VWS V14.01,2013-07-02 02:48:00,
2013-07-01 21:49:00,67.3,59.1,29.91,NW,325,0.0,14.0,75,0.01,,BKN075,0.02,VWS V14.01,2013-07-02 02:49:00,
2013-07-01 21:50:00,67.2,59.4,29.91,NNW,339,0.0,14.0,76,0.01,,BKN075,0.02,VWS V14.01,2013-07-02 02:50:00,
2013-07-01 21:51:00,67.0,59.2,29.91,North,360,6.0,14.0,76,0.02,,BKN075,0.03,VWS V14.01,2013-07-02 02:51:00,
2013-07-01 21:53:00,66.7,59.3,29.91,NNW,344,0.0,14.0,77,0.02,,BKN075,0.03,VWS V14.01,2013-07-02 02:53:00,
2013-07-01 21:54:00,66.5,59.4,29.91,NW,320,0.0,14.0,78,0.02,,BKN075,0.03,VWS V14.01,2013-07-02 02:54:00,
2013-07-01 21:55:00,66.3,59.2,29.91,NW,318,0.0,14.0,78,0.02,,BKN075,0.03,VWS V14.01,2013-07-02 02:55:00,
2013-07-01 21:56:00,66.2,59.5,29.91,NW,319,0.0,14.0,79,0.02,,BKN075,0.03,VWS V14.01,2013-07-02 02:56:00,
2013-07-01 21:59:00,65.9,59.6,29.91,NW,325,0.0,14.0,80,0.03,,BKN075,0.04,VWS V14.01,2013-07-02 02:59:00,
2013-07-01 22:00:00,65.7,59.4,29.91,NNW,337,1.0,14.0,80,0.03,,BKN075,0.04,VWS V14.01,2013-07-02 03:00:00,
2013-07-01 22:01:00,65.7,59.7,29.91,NNW,344,0.0,0.0,81,0.03,,BKN060,0.04,VWS V14.01,2013-07-02 03:01:00,
2013-07-01 22:04:00,65.4,59.4,29.91,NNW,332,0.0,1.0,81,0.03,,BKN060,0.04,VWS V14.01,2013-07-02 03:04:00,
2013-07-01 22:06:00,65.4,59.4,29.91,East,90,0.0,1.0,81,0.03,,BKN060,0.04,VWS V14.01,2013-07-02 03:06:00,
2013-07-01 22:09:00,65.2,59.6,29.91,NE,34,4.0,10.0,82,0.03,,BKN060,0.04,VWS V14.01,2013-07-02 03:09:00,
2013-07-01 22:11:00,65.4,59.8,29.91,NNE,19,3.0,11.0,82,0.03,,BKN060,0.04,VWS V14.01,2013-07-02 03:11:00,
2013-07-01 22:14:00,65.4,59.8,29.91,NNE,21,6.0,11.0,82,0.03,,BKN060,0.04,VWS V14.01,2013-07-02 03:14:00,
2013-07-01 22:16:00,65.4,59.8,29.91,NNE,27,0.0,11.0,82,0.03,,BKN060,0.04,VWS V14.01,2013-07-02 03:16:00,
2013-07-01 22:19:00,65.5,60.2,29.91,NE,40,0.0,11.0,83,0.03,,BKN060,0.04,VWS V14.01,2013-07-02 03:19:00,
2013-07-01 22:21:00,65.5,60.2,29.91,ENE,69,6.0,11.0,83,0.03,,BKN060,0.04,VWS V14.01,2013-07-02 03:21:00,
2013-07-01 22:24:00,65.5,60.2,29.91,NNE,21,1.0,11.0,83,0.03,,BKN060,0.04,VWS V14.01,2013-07-02 03:24:00,
2013-07-01 22:26:00,65.5,60.5,29.91,NNE,20,4.0,11.0,84,0.03,,BKN060,0.04,VWS V14.01,2013-07-02 03:26:00,
2013-07-01 22:29:00,65.4,60.5,29.91,NNE,17,0.0,11.0,84,0.03,,BKN060,0.04,VWS V14.01,2013-07-02 03:29:00,
2013-07-01 22:30:00,65.4,60.5,29.91,NE,50,4.0,11.0,84,0.03,,BKN060,0.04,VWS V14.01,2013-07-02 03:30:00,
2013-07-01 22:31:00,65.4,60.5,29.91,NE,34,4.0,10.0,84,0.03,,BKN060,0.04,VWS V14.01,2013-07-02 03:31:00,
2013-07-01 22:32:00,65.4,60.5,29.91,North,360,0.0,10.0,84,0.03,,BKN060,0.04,VWS V14.01,2013-07-02 03:32:00,
2013-07-01 22:35:00,65.2,60.6,29.91,NNE,24,4.0,10.0,85,0.03,,BKN060,0.04,VWS V14.01,2013-07-02 03:35:00,
2013-07-01 22:36:00,65.2,60.6,29.91,East,80,3.0,10.0,85,0.03,,BKN060,0.04,VWS V14.01,2013-07-02 03:36:00,
2013-07-01 22:37:00,65.2,60.9,29.91,NE,43,2.0,10.0,86,0.03,,BKN060,0.04,VWS V14.01,2013-07-02 03:37:00,
2013-07-01 22:40:00,65.2,60.9,29.91,NNE,25,2.0,10.0,86,0.03,,BKN060,0.04,VWS V14.01,2013-07-02 03:40:00,
2013-07-01 22:41:00,65.2,61.2,29.91,NNW,333,4.0,10.0,87,0.03,,BKN060,0.04,VWS V14.01,2013-07-02 03:41:00,
2013-07-01 22:42:00,65.2,61.2,29.91,North,355,2.0,10.0,87,0.03,,BKN060,0.04,VWS V14.01,2013-07-02 03:42:00,
2013-07-01 22:45:00,65.1,61.5,29.91,NNE,15,4.0,10.0,88,0.03,,BKN060,0.04,VWS V14.01,2013-07-02 03:45:00,
2013-07-01 22:47:00,65.1,61.5,29.91,ENE,73,6.0,11.0,88,0.03,,BKN050,0.04,VWS V14.01,2013-07-02 03:47:00,
2013-07-01 22:50:00,64.9,61.3,29.91,NE,41,0.0,11.0,88,0.04,,BKN050,0.05,VWS V14.01,2013-07-02 03:50:00,
2013-07-01 22:51:00,64.9,61.3,29.91,NNW,347,5.0,11.0,88,0.04,,BKN050,0.05,VWS V14.01,2013-07-02 03:51:00,
2013-07-01 22:52:00,64.9,61.6,29.91,NNE,28,0.0,11.0,89,0.04,,BKN050,0.05,VWS V14.01,2013-07-02 03:52:00,
2013-07-01 22:55:00,64.9,61.6,29.91,NNE,13,2.0,11.0,89,0.04,,BKN050,0.05,VWS V14.01,2013-07-02 03:55:00,
2013-07-01 22:56:00,64.9,61.6,29.91,NNW,342,0.0,11.0,89,0.04,,BKN050,0.05,VWS V14.01,2013-07-02 03:56:00,
2013-07-01 22:57:00,64.9,61.6,29.91,NE,50,1.0,11.0,89,0.04,,BKN050,0.05,VWS V14.01,2013-07-02 03:57:00,
2013-07-01 23:00:00,64.7,61.7,29.91,North,349,0.0,11.0,90,0.04,,BKN050,0.05,VWS V14.01,2013-07-02 04:00:00,
2013-07-01 23:01:00,64.7,61.7,29.91,North,349,0.0,1.0,90,0.01,,BKN050,0.05,VWS V14.01,2013-07-02 04:01:00,
2013-07-01 23:06:00,64.7,62.0,29.91,ENE,58,0.0,11.0,91,0.01,,BKN070,0.05,VWS V14.01,2013-07-02 04:06:00,
2013-07-01 23:07:00,64.7,62.0,29.91,North,350,0.0,11.0,91,0.01,,BKN070,0.05,VWS V14.01,2013-07-02 04:07:00,
2013-07-01 23:11:00,64.9,62.2,29.91,NNE,15,4.0,11.0,91,0.01,,BKN070,0.05,VWS V14.01,2013-07-02 04:11:00,
2013-07-01 23:12:00,64.7,62.0,29.91,North,360,0.0,11.0,91,0.01,,BKN070,0.05,VWS V14.01,2013-07-02 04:12:00,
2013-07-01 23:16:00,64.7,62.0,29.91,NNE,19,0.0,11.0,91,0.01,,BKN070,0.05,VWS V14.01,2013-07-02 04:16:00,
2013-07-01 23:17:00,64.7,62.0,29.91,NE,35,5.0,11.0,91,0.01,,BKN070,0.05,VWS V14.01,2013-07-02 04:17:00,
2013-07-01 23:21:00,64.7,62.0,29.91,NNE,30,0.0,11.0,91,0.01,,BKN070,0.05,VWS V14.01,2013-07-02 04:21:00,
2013-07-01 23:22:00,64.7,62.0,29.91,ENE,57,6.0,11.0,91,0.01,,BKN070,0.05,VWS V14.01,2013-07-02 04:22:00,
2013-07-01 23:26:00,64.7,62.0,29.91,North,9,4.0,11.0,91,0.01,,BKN070,0.05,VWS V14.01,2013-07-02 04:26:00,
2013-07-01 23:27:00,64.7,62.0,29.91,North,10,3.0,11.0,91,0.01,,BKN070,0.05,VWS V14.01,2013-07-02 04:27:00,
2013-07-01 23:30:00,64.9,61.9,29.91,North,5,3.0,11.0,90,0.01,,,0.05,VWS V14.01,2013-07-02 04:30:00,
2013-07-01 23:32:00,64.9,61.9,29.91,NNE,22,5.0,7.0,90,0.01,,BKN070,0.05,VWS V14.01,2013-07-02 04:32:00,
2013-07-01 23:37:00,64.7,61.7,29.91,North,10,0.0,9.0,90,0.01,,BKN070,0.05,VWS V14.01,2013-07-02 04:37:00,
2013-07-01 23:42:00,64.9,61.9,29.91,ENE,57,3.0,9.0,90,0.01,,BKN070,0.05,VWS V14.01,2013-07-02 04:42:00,
2013-07-01 23:43:00,64.9,61.9,29.91,NE,42,3.0,9.0,90,0.01,,BKN070,0.05,VWS V14.01,2013-07-02 04:43:00,
2013-07-01 23:47:00,64.9,61.9,29.91,NNE,27,3.0,12.0,90,0.01,,OVC095,0.05,VWS V14.01,2013-07-02 04:47:00,
2013-07-01 23:48:00,64.9,61.9,29.91,North,5,0.0,12.0,90,0.01,,OVC095,0.05,VWS V14.01,2013-07-02 04:48:00,
2013-07-01 23:52:00,64.9,61.9,29.91,North,355,3.0,12.0,90,0.01,,OVC095,0.05,VWS V14.01,2013-07-02 04:52:00,
2013-07-01 23:53:00,64.9,61.9,29.91,North,355,0.0,12.0,90,0.01,,OVC095,0.05,VWS V14.01,2013-07-02 04:53:00,
2013-07-01 23:57:00,64.9,61.9,29.91,NNE,32,4.0,12.0,90,0.01,,OVC095,0.05,VWS V14.01,2013-07-02 04:57:00,
2013-07-01 23:58:00,64.9,61.6,29.91,NE,37,0.0,12.0,89,0.01,,OVC095,0.05,VWS V14.01,2013-07-02 04:58:00,